CW3318 Weather Reports


time (UTC)temp
C
wind
direction
speed
KPH
gust
KPH
rain 1hr
cm
rain 24hr
cm
rain mn
cm
humidity
%
barometer
mb
20260505224517 28 355 11.3 24.1 0.00 0.00 0.00 30 1006.6
20260505224419 28 65 14.5 24.1 0.00 0.00 0.00 30 1006.6
20260505224325 28 59 14.5 24.1 0.00 0.00 0.00 29 1006.6
20260505224242 28 23 9.7 24.1 0.00 0.00 0.00 29 1006.6
20260505224126 28 55 8.0 24.1 0.00 0.00 0.00 29 1006.6
20260505224019 28 36 6.4 29.0 0.00 0.00 0.00 29 1006.6
20260505223926 28 102 6.4 29.0 0.00 0.00 0.00 29 1006.7
20260505223825 28 19 8.0 29.0 0.00 0.00 0.00 28 1006.6
20260505223722 28 38 8.0 29.0 0.00 0.00 0.00 29 1006.7
20260505223626 28 10 6.4 29.0 0.00 0.00 0.00 29 1006.7
20260505223520 28 356 8.0 29.0 0.00 0.00 0.00 28 1006.6
20260505223445 28 356 12.9 29.0 0.00 0.00 0.00 29 1006.6
20260505223408 28 19 14.5 29.0 0.00 0.00 0.00 29 1006.7
20260505223304 28 21 12.9 29.0 0.00 0.00 0.00 29 1006.6
20260505223121 28 25 8.0 19.3 0.00 0.00 0.00 29 1006.6
20260505223037 28 10 8.0 17.7 0.00 0.00 0.00 29 1006.6
20260505222941 28 42 9.7 17.7 0.00 0.00 0.00 29 1006.6
20260505222826 28 212 8.0 17.7 0.00 0.00 0.00 29 1006.6
20260505222723 28 60 6.4 17.7 0.00 0.00 0.00 30 1006.6
20260505222619 28 71 6.4 17.7 0.00 0.00 0.00 31 1006.6
20260505222526 27 95 6.4 17.7 0.00 0.00 0.00 31 1006.6
20260505222431 27 81 6.4 17.7 0.00 0.00 0.00 30 1006.6
20260505222312 27 61 6.4 17.7 0.00 0.00 0.00 30 1006.7
20260505222241 27 67 8.0 17.7 0.00 0.00 0.00 30 1006.7
20260505222116 27 44 6.4 19.3 0.00 0.00 0.00 30 1006.7
20260505222034 27 106 4.8 19.3 0.00 0.00 0.00 30 1006.7
20260505221920 27 46 6.4 19.3 0.00 0.00 0.00 30 1006.7
20260505221818 27 357 8.0 19.3 0.00 0.00 0.00 30 1006.7
20260505221723 27 51 9.7 19.3 0.00 0.00 0.00 29 1006.7
20260505221622 27 5 8.0 19.3 0.00 0.00 0.00 30 1006.7
20260505221519 27 30 9.7 19.3 0.00 0.00 0.00 29 1006.7
20260505221426 27 15 12.9 19.3 0.00 0.00 0.00 28 1006.7
20260505221323 27 345 12.9 19.3 0.00 0.00 0.00 28 1006.7
20260505221232 27 5 11.3 19.3 0.00 0.00 0.00 28 1006.7
20260505221126 27 341 9.7 19.3 0.00 0.00 0.00 28 1006.7
20260505221026 27 5 11.3 22.5 0.00 0.00 0.00 27 1006.7
20260505220913 27 15 9.7 22.5 0.00 0.00 0.00 28 1006.8
20260505220830 27 54 8.0 22.5 0.00 0.00 0.00 27 1006.8
20260505220734 27 73 6.4 22.5 0.00 0.00 0.00 29 1006.8
20260505220643 27 46 8.0 22.5 0.00 0.00 0.00 29 1006.8
20260505220517 27 69 6.4 22.5 0.00 0.00 0.00 28 1006.8
20260505220414 27 10 4.8 22.5 0.00 0.00 0.00 27 1006.8
20260505220315 27 355 9.7 22.5 0.00 0.00 0.00 27 1006.8
20260505220242 27 325 11.3 22.5 0.00 0.00 0.00 27 1006.9
20260505220125 27 44 9.7 22.5 0.00 0.00 0.00 27 1006.8
20260505220021 27 66 4.8 16.1 0.00 0.00 0.00 27 1006.8
20260505215926 27 92 6.4 16.1 0.00 0.00 0.00 28 1006.8
20260505215823 27 40 6.4 16.1 0.00 0.00 0.00 28 1006.8
20260505215749 27 96 6.4 16.1 0.00 0.00 0.00 28 1006.8
20260505215636 27 23 6.4 16.1 0.00 0.00 0.00 28 1006.8
20260505215535 27 327 6.4 16.1 0.00 0.00 0.00 28 1006.9
20260505215420 27 60 8.0 16.1 0.00 0.00 0.00 29 1006.9
20260505215336 27 92 8.0 16.1 0.00 0.00 0.00 28 1006.9
20260505215223 27 51 6.4 17.7 0.00 0.00 0.00 27 1006.9
20260505215119 27 46 4.8 17.7 0.00 0.00 0.00 30 1006.9
20260505215014 27 31 4.8 17.7 0.00 0.00 0.00 29 1006.9
20260505214921 27 32 6.4 17.7 0.00 0.00 0.00 29 1006.9
20260505214822 27 48 8.0 17.7 0.00 0.00 0.00 30 1006.9
20260505214730 27 77 6.4 17.7 0.00 0.00 0.00 30 1006.9
20260505214626 27 51 4.8 17.7 0.00 0.00 0.00 30 1006.8
20260505214531 27 70 6.4 17.7 0.00 0.00 0.00 29 1006.9
20260505214429 27 15 9.7 17.7 0.00 0.00 0.00 30 1006.9
20260505214327 27 53 8.0 17.7 0.00 0.00 0.00 29 1006.9
20260505214219 27 332 6.4 17.7 0.00 0.00 0.00 30 1006.9
20260505214112 27 30 9.7 17.7 0.00 0.00 0.00 30 1006.9
20260505214039 27 69 8.0 19.3 0.00 0.00 0.00 29 1006.9
20260505213916 27 52 11.3 20.9 0.00 0.00 0.00 31 1006.9
20260505213814 27 20 9.7 20.9 0.00 0.00 0.00 30 1007.0
20260505213742 27 36 6.4 20.9 0.00 0.00 0.00 30 1006.9
20260505213617 27 31 6.4 20.9 0.00 0.00 0.00 30 1006.9
20260505213528 27 35 6.4 20.9 0.00 0.00 0.00 30 1006.9
20260505213446 27 15 9.7 20.9 0.00 0.00 0.00 30 1006.9
20260505213330 27 355 11.3 20.9 0.00 0.00 0.00 31 1006.9
20260505213228 27 10 12.9 20.9 0.00 0.00 0.00 30 1006.9
20260505213135 27 19 12.9 20.9 0.00 0.00 0.00 30 1006.9
20260505213031 27 334 11.3 20.9 0.00 0.00 0.00 31 1006.9
20260505212938 27 23 9.7 20.9 0.00 0.00 0.00 31 1007.0
20260505212818 27 77 9.7 20.9 0.00 0.00 0.00 32 1007.0
20260505212716 27 29 8.0 20.9 0.00 0.00 0.00 33 1007.0
20260505212612 26 15 4.8 20.9 0.00 0.00 0.00 32 1006.9
20260505212517 26 349 9.7 19.3 0.00 0.00 0.00 32 1007.0
20260505212422 26 34 11.3 19.3 0.00 0.00 0.00 32 1007.0
20260505212339 26 10 9.7 19.3 0.00 0.00 0.00 32 1007.0
20260505212223 26 352 11.3 19.3 0.00 0.00 0.00 32 1007.0
20260505212131 26 5 12.9 22.5 0.00 0.00 0.00 33 1007.0
20260505212029 26 360 12.9 22.5 0.00 0.00 0.00 33 1007.0
20260505211926 26 5 11.3 22.5 0.00 0.00 0.00 32 1007.0
20260505211811 26 333 11.3 22.5 0.00 0.00 0.00 31 1007.0
20260505211728 26 339 11.3 22.5 0.00 0.00 0.00 31 1007.0
20260505211656 26 340 11.3 22.5 0.00 0.00 0.00 32 1007.0
20260505211600 26 341 12.9 22.5 0.00 0.00 0.00 32 1007.0
20260505211417 26 5 14.5 22.5 0.00 0.00 0.00 32 1007.0
20260505211318 26 19 14.5 22.5 0.00 0.00 0.00 32 1007.0
20260505211224 26 346 14.5 22.5 0.00 0.00 0.00 32 1007.0
20260505211132 26 5 11.3 20.9 0.00 0.00 0.00 32 1007.0
20260505211028 26 15 8.0 20.9 0.00 0.00 0.00 33 1007.1
20260505210926 26 351 8.0 20.9 0.00 0.00 0.00 32 1007.0
20260505210833 26 65 8.0 20.9 0.00 0.00 0.00 32 1007.0
20260505210713 26 27 8.0 20.9 0.00 0.00 0.00 32 1007.0
20260505210640 26 355 9.7 20.9 0.00 0.00 0.00 32 1007.0
20260505210512 26 337 11.3 20.9 0.00 0.00 0.00 33 1007.1
20260505210439 26 43 14.5 20.9 0.00 0.00 0.00 33 1007.1
20260505210344 26 31 14.5 20.9 0.00 0.00 0.00 32 1007.1
20260505210219 26 15 11.3 20.9 0.00 0.00 0.00 32 1007.1
20260505210116 26 10 9.7 20.9 0.00 0.00 0.00 32 1007.1
20260505210022 26 10 6.4 20.9 0.00 0.00 0.00 32 1007.1
20260505205921 26 72 3.2 20.9 0.00 0.00 0.00 32 1007.1
20260505205846 26 30 3.2 20.9 0.00 0.00 0.00 32 1007.1
20260505205723 26 58 6.4 20.9 0.00 0.00 0.00 32 1007.1
20260505205647 26 10 9.7 20.9 0.00 0.00 0.00 33 1007.1
20260505205533 26 15 9.7 20.9 0.00 0.00 0.00 32 1007.1
20260505205429 26 1 11.3 20.9 0.00 0.00 0.00 32 1007.1
20260505205334 26 10 8.0 20.9 0.00 0.00 0.00 33 1007.1
20260505205241 26 10 8.0 20.9 0.00 0.00 0.00 33 1007.1
20260505205120 26 66 8.0 19.3 0.00 0.00 0.00 33 1007.1
20260505205036 26 10 9.7 19.3 0.00 0.00 0.00 33 1007.1
20260505204921 26 360 12.9 19.3 0.00 0.00 0.00 33 1007.1
20260505204847 26 67 11.3 19.3 0.00 0.00 0.00 32 1007.1
20260505204726 26 346 8.0 19.3 0.00 0.00 0.00 32 1007.1
20260505204623 26 345 8.0 19.3 0.00 0.00 0.00 32 1007.1
20260505204530 26 22 11.3 19.3 0.00 0.00 0.00 32 1007.1
20260505204426 26 15 12.9 19.3 0.00 0.00 0.00 33 1007.2
20260505204334 26 15 12.9 19.3 0.00 0.00 0.00 32 1007.2
20260505204230 26 352 11.3 17.7 0.00 0.00 0.00 32 1007.2
20260505204138 26 353 8.0 16.1 0.00 0.00 0.00 32 1007.2
20260505204012 26 72 8.0 20.9 0.00 0.00 0.00 33 1007.2
20260505203938 26 53 8.0 20.9 0.00 0.00 0.00 32 1007.2
20260505203816 26 15 4.8 20.9 0.00 0.00 0.00 33 1007.2
20260505203745 26 32 6.4 20.9 0.00 0.00 0.00 33 1007.2
20260505203620 26 356 9.7 20.9 0.00 0.00 0.00 32 1007.2
20260505203517 26 15 11.3 20.9 0.00 0.00 0.00 33 1007.2
20260505203422 26 23 11.3 20.9 0.00 0.00 0.00 32 1007.2
20260505203320 26 20 11.3 20.9 0.00 0.00 0.00 32 1007.3
20260505203228 26 23 11.3 20.9 0.00 0.00 0.00 32 1007.3
20260505203124 26 5 6.4 19.3 0.00 0.00 0.00 33 1007.3
20260505203028 26 32 6.4 19.3 0.00 0.00 0.00 33 1007.3
20260505202923 26 40 8.0 19.3 0.00 0.00 0.00 33 1007.2
20260505202828 26 76 9.7 19.3 0.00 0.00 0.00 33 1007.2
20260505202725 26 15 9.7 27.4 0.00 0.00 0.00 33 1007.4
20260505202621 26 10 9.7 27.4 0.00 0.00 0.00 33 1007.4
20260505202547 26 353 6.4 27.4 0.00 0.00 0.00 33 1007.4
20260505202433 26 316 6.4 27.4 0.00 0.00 0.00 34 1007.3
20260505202329 26 36 11.3 27.4 0.00 0.00 0.00 34 1007.3
20260505202218 26 23 11.3 27.4 0.00 0.00 0.00 33 1007.4
20260505202114 26 26 11.3 27.4 0.00 0.00 0.00 32 1007.4
20260505202041 26 352 12.9 27.4 0.00 0.00 0.00 34 1007.4
20260505201916 26 349 8.0 27.4 0.00 0.00 0.00 33 1007.4
20260505201821 26 23 6.4 19.3 0.00 0.00 0.00 33 1007.4
20260505201727 26 44 9.7 20.9 0.00 0.00 0.00 33 1007.4
20260505201620 26 40 9.7 20.9 0.00 0.00 0.00 34 1007.4
20260505201516 26 25 9.7 20.9 0.00 0.00 0.00 33 1007.4
20260505201426 26 10 11.3 20.9 0.00 0.00 0.00 33 1007.4
20260505201323 26 32 9.7 20.9 0.00 0.00 0.00 34 1007.4
20260505201230 26 20 8.0 20.9 0.00 0.00 0.00 34 1007.4
20260505201159 26 341 6.4 20.9 0.00 0.00 0.00 35 1007.4
20260505201012 25 61 9.7 22.5 0.00 0.00 0.00 35 1007.5
20260505200930 25 58 8.0 22.5 0.00 0.00 0.00 35 1007.5
20260505200852 25 15 8.0 22.5 0.00 0.00 0.00 34 1007.5
20260505200714 25 40 11.3 22.5 0.00 0.00 0.00 34 1007.5
20260505200619 25 28 11.3 22.5 0.00 0.00 0.00 34 1007.5
20260505200537 25 40 9.7 22.5 0.00 0.00 0.00 34 1007.5
20260505200420 25 331 9.7 22.5 0.00 0.00 0.00 34 1007.5
20260505200318 25 342 11.3 22.5 0.00 0.00 0.00 35 1007.5
20260505200225 25 350 11.3 22.5 0.00 0.00 0.00 35 1007.5
20260505200120 25 359 8.0 20.9 0.00 0.00 0.00 35 1007.5
20260505200029 25 19 6.4 20.9 0.00 0.00 0.00 35 1007.5
20260505195955 25 31 8.0 20.9 0.00 0.00 0.00 36 1007.5
20260505195811 25 15 8.0 20.9 0.00 0.00 0.00 34 1007.5
20260505195728 25 5 8.0 20.9 0.00 0.00 0.00 33 1007.5
20260505195633 25 347 9.7 20.9 0.00 0.00 0.00 34 1007.5
20260505195536 25 1 12.9 20.9 0.00 0.00 0.00 34 1007.5
20260505195432 25 5 14.5 20.9 0.00 0.00 0.00 35 1007.5
20260505195359 25 351 11.3 19.3 0.00 0.00 0.00 36 1007.5
20260505195220 25 36 6.4 19.3 0.00 0.00 0.00 36 1007.5
20260505195143 25 70 6.4 17.7 0.00 0.00 0.00 35 1007.5
20260505195019 25 91 4.8 17.7 0.00 0.00 0.00 36 1007.5
20260505194923 25 25 4.8 17.7 0.00 0.00 0.00 35 1007.5
20260505194820 25 93 6.4 17.7 0.00 0.00 0.00 36 1007.5
20260505194729 25 54 8.0 17.7 0.00 0.00 0.00 36 1007.5
20260505194623 25 52 6.4 17.7 0.00 0.00 0.00 35 1007.6
20260505194524 25 360 6.4 17.7 0.00 0.00 0.00 35 1007.6
20260505194430 25 356 8.0 17.7 0.00 0.00 0.00 35 1007.6
20260505194328 25 354 8.0 19.3 0.00 0.00 0.00 36 1007.6
20260505194234 25 10 6.4 19.3 0.00 0.00 0.00 36 1007.6
20260505194131 25 343 4.8 19.3 0.00 0.00 0.00 37 1007.6
20260505194035 25 19 6.4 19.3 0.00 0.00 0.00 37 1007.6
20260505193913 25 57 9.7 19.3 0.00 0.00 0.00 37 1007.6
20260505193843 25 28 9.7 19.3 0.00 0.00 0.00 36 1007.6
20260505193720 25 25 11.3 19.3 0.00 0.00 0.00 37 1007.6
20260505193628 25 55 11.3 19.3 0.00 0.00 0.00 37 1007.6
20260505193544 25 33 9.7 19.3 0.00 0.00 0.00 38 1007.6
20260505193430 24 52 8.0 19.3 0.00 0.00 0.00 37 1007.6
20260505193328 24 21 6.4 19.3 0.00 0.00 0.00 37 1007.6
20260505193236 24 41 8.0 19.3 0.00 0.00 0.00 38 1007.7
20260505193113 24 42 11.3 19.3 0.00 0.00 0.00 37 1007.7
20260505193030 24 350 9.7 19.3 0.00 0.00 0.00 39 1007.7
20260505192936 24 23 6.4 17.7 0.00 0.00 0.00 38 1007.7
20260505192832 24 45 8.0 17.7 0.00 0.00 0.00 37 1007.7
20260505192719 24 23 9.7 17.7 0.00 0.00 0.00 37 1007.7
20260505192614 24 15 11.3 17.7 0.00 0.00 0.00 38 1007.8
20260505192512 24 20 9.7 17.7 0.00 0.00 0.00 38 1007.7
20260505192422 23 10 6.4 17.7 0.00 0.00 0.00 38 1007.7
20260505192319 23 10 8.0 17.7 0.00 0.00 0.00 38 1007.7
20260505192227 23 27 6.4 14.5 0.00 0.00 0.00 39 1007.7
20260505192123 23 110 3.2 14.5 0.00 0.00 0.00 38 1007.7
20260505192020 23 327 3.2 14.5 0.00 0.00 0.00 38 1007.7
20260505191925 23 329 4.8 14.5 0.00 0.00 0.00 39 1007.7
20260505191829 23 24 8.0 14.5 0.00 0.00 0.00 38 1007.7
20260505191742 23 21 8.0 16.1 0.00 0.00 0.00 38 1007.8
20260505191613 23 341 6.4 16.1 0.00 0.00 0.00 39 1007.8
20260505191540 23 353 6.4 16.1 0.00 0.00 0.00 39 1007.8
20260505191417 23 10 6.4 16.1 0.00 0.00 0.00 38 1007.8
20260505191314 23 319 9.7 16.1 0.00 0.00 0.00 38 1007.8
20260505191220 24 344 9.7 16.1 0.00 0.00 0.00 38 1007.8
20260505191143 24 332 9.7 16.1 0.00 0.00 0.00 38 1007.8
20260505191019 24 335 8.0 16.1 0.00 0.00 0.00 39 1007.8
20260505190920 24 359 6.4 16.1 0.00 0.00 0.00 40 1007.8
20260505190826 23 29 8.0 16.1 0.00 0.00 0.00 39 1007.8
20260505190753 23 10 6.4 16.1 0.00 0.00 0.00 39 1007.8
20260505190628 23 19 4.8 16.1 0.00 0.00 0.00 41 1007.8
20260505190532 23 29 4.8 16.1 0.00 0.00 0.00 39 1007.8
20260505190428 23 77 9.7 16.1 0.00 0.00 0.00 39 1007.8
20260505190354 23 57 9.7 16.1 0.00 0.00 0.00 40 1007.8
20260505190236 23 50 6.4 16.1 0.00 0.00 0.00 40 1007.8
20260505190119 23 29 6.4 16.1 0.00 0.00 0.00 40 1007.9
20260505190034 23 28 6.4 16.1 0.00 0.00 0.00 39 1007.8
20260505185919 23 65 8.0 16.1 0.00 0.00 0.00 40 1007.8
20260505185817 23 352 4.8 17.7 0.00 0.00 0.00 40 1007.8
20260505185724 23 27 4.8 17.7 0.00 0.00 0.00 39 1007.9
20260505185617 23 306 6.4 17.7 0.00 0.00 0.00 39 1007.8
20260505185543 23 306 8.0 17.7 0.00 0.00 0.00 39 1007.8
20260505185451 23 323 4.8 17.7 0.00 0.00 0.00 40 1007.8
20260505185327 23 5 4.8 17.7 0.00 0.00 0.00 40 1007.9
20260505185223 23 321 8.0 17.7 0.00 0.00 0.00 41 1007.9
20260505185131 23 350 9.7 17.7 0.00 0.00 0.00 40 1007.9
20260505185024 23 21 8.0 17.7 0.00 0.00 0.00 41 1007.9
20260505184930 23 341 8.0 17.7 0.00 0.00 0.00 39 1007.9
20260505184826 23 358 8.0 16.1 0.00 0.00 0.00 40 1007.9
20260505184726 23 27 8.0 16.1 0.00 0.00 0.00 40 1008.0
20260505184635 23 10 6.4 16.1 0.00 0.00 0.00 41 1008.0
20260505184558 23 29 6.4 16.1 0.00 0.00 0.00 40 1007.9
20260505184415 23 39 8.0 16.1 0.00 0.00 0.00 41 1008.0
20260505184312 23 36 8.0 16.1 0.00 0.00 0.00 41 1008.0
20260505184240 23 48 8.0 16.1 0.00 0.00 0.00 41 1008.0
20260505184119 23 348 6.4 16.1 0.00 0.00 0.00 41 1007.9
20260505184046 23 21 8.0 16.1 0.00 0.00 0.00 42 1007.9
20260505183922 23 37 6.4 16.1 0.00 0.00 0.00 42 1007.9
20260505183828 23 347 4.8 16.1 0.00 0.00 0.00 41 1007.9
20260505183731 23 323 6.4 16.1 0.00 0.00 0.00 41 1007.9
20260505183651 23 333 4.8 16.1 0.00 0.00 0.00 40 1007.9
20260505183532 23 344 6.4 16.1 0.00 0.00 0.00 41 1007.9
20260505183458 23 344 6.4 16.1 0.00 0.00 0.00 41 1007.9
20260505183333 23 354 8.0 16.1 0.00 0.00 0.00 41 1007.9
20260505183258 23 343 9.7 16.1 0.00 0.00 0.00 41 1007.9
20260505183118 23 341 8.0 14.5 0.00 0.00 0.00 41 1007.9
20260505183016 23 15 4.8 11.3 0.00 0.00 0.00 40 1007.8
20260505182922 23 44 6.4 12.9 0.00 0.00 0.00 40 1007.9
20260505182837 23 354 4.8 12.9 0.00 0.00 0.00 41 1007.9
20260505182724 23 19 4.8 12.9 0.00 0.00 0.00 40 1007.9
20260505182619 23 113 6.4 14.5 0.00 0.00 0.00 40 1007.9
20260505182528 23 28 6.4 14.5 0.00 0.00 0.00 41 1007.9
20260505182445 23 88 6.4 14.5 0.00 0.00 0.00 41 1007.8
20260505182331 23 50 3.2 14.5 0.00 0.00 0.00 40 1007.8
20260505182228 23 25 4.8 14.5 0.00 0.00 0.00 41 1007.9
20260505182137 23 20 6.4 14.5 0.00 0.00 0.00 40 1007.8
20260505182012 23 353 6.4 14.5 0.00 0.00 0.00 41 1007.8
20260505181938 23 39 8.0 14.5 0.00 0.00 0.00 40 1007.8
20260505181817 23 69 8.0 14.5 0.00 0.00 0.00 41 1007.9
20260505181743 23 28 9.7 14.5 0.00 0.00 0.00 41 1007.8
20260505181616 23 10 8.0 14.5 0.00 0.00 0.00 41 1007.9
20260505181544 23 5 4.8 14.5 0.00 0.00 0.00 41 1007.8
20260505181420 23 1 1.6 14.5 0.00 0.00 0.00 41 1007.8
20260505181347 23 1 1.6 14.5 0.00 0.00 0.00 41 1007.8
20260505181253 23 1 3.2 14.5 0.00 0.00 0.00 41 1007.8
20260505181130 22 1 3.2 14.5 0.00 0.00 0.00 42 1007.8
20260505181013 22 354 3.2 14.5 0.00 0.00 0.00 42 1007.8
20260505180914 22 354 4.8 14.5 0.00 0.00 0.00 42 1007.8
20260505180820 22 40 6.4 14.5 0.00 0.00 0.00 42 1007.9
20260505180714 22 57 4.8 14.5 0.00 0.00 0.00 42 1007.8
20260505180642 22 46 3.2 14.5 0.00 0.00 0.00 42 1007.8
20260505180518 22 47 6.4 14.5 0.00 0.00 0.00 42 1007.8
20260505180416 22 50 4.8 14.5 0.00 0.00 0.00 43 1007.8
20260505180325 22 25 3.2 12.9 0.00 0.00 0.00 43 1007.8
20260505180241 22 21 1.6 12.9 0.00 0.00 0.00 42 1007.8
20260505180129 22 21 3.2 12.9 0.00 0.00 0.00 43 1007.8
20260505180024 22 21 6.4 12.9 0.00 0.00 0.00 43 1007.8
20260505175930 22 21 4.8 12.9 0.00 0.00 0.00 43 1007.8
20260505175824 22 26 4.8 11.3 0.00 0.00 0.00 43 1007.8
20260505175730 22 24 6.4 9.7 0.00 0.00 0.00 44 1007.8
20260505175629 22 29 4.8 11.3 0.00 0.00 0.00 43 1007.8
20260505175536 22 77 3.2 9.7 0.00 0.00 0.00 43 1007.8
20260505175431 22 77 4.8 9.7 0.00 0.00 0.00 44 1007.8
20260505175338 22 5 4.8 12.9 0.00 0.00 0.00 44 1007.8
20260505175217 22 353 1.6 12.9 0.00 0.00 0.00 44 1007.8
20260505175140 21 352 1.6 12.9 0.00 0.00 0.00 44 1007.8
20260505175036 21 352 1.6 12.9 0.00 0.00 0.00 45 1007.8
20260505174922 21 352 3.2 12.9 0.00 0.00 0.00 45 1007.8
20260505174824 21 352 4.8 12.9 0.00 0.00 0.00 44 1007.8
20260505174730 21 352 6.4 12.9 0.00 0.00 0.00 44 1007.8
20260505174625 21 313 8.0 12.9 0.00 0.00 0.00 44 1007.8
20260505174522 21 314 6.4 9.7 0.00 0.00 0.00 44 1007.8
20260505174428 21 336 4.8 9.7 0.00 0.00 0.00 45 1007.8
20260505174354 21 337 3.2 9.7 0.00 0.00 0.00 45 1007.8
20260505174213 21 327 0.0 9.7 0.00 0.00 0.00 45 1007.8
20260505174113 21 327 0.0 9.7 0.00 0.00 0.00 45 1007.8
20260505174019 21 327 0.0 9.7 0.00 0.00 0.00 45 1007.8
20260505173916 21 327 1.6 9.7 0.00 0.00 0.00 45 1007.8
20260505173843 21 327 4.8 9.7 0.00 0.00 0.00 45 1007.8
20260505173721 21 327 4.8 11.3 0.00 0.00 0.00 45 1007.8
20260505173625 21 298 3.2 9.7 0.00 0.00 0.00 45 1007.7
20260505173521 21 265 0.0 6.4 0.00 0.00 0.00 46 1007.7
20260505173423 21 265 0.0 6.4 0.00 0.00 0.00 45 1007.8
20260505173330 21 265 1.6 6.4 0.00 0.00 0.00 46 1007.8
20260505173228 21 265 1.6 6.4 0.00 0.00 0.00 46 1007.8
20260505173134 21 265 1.6 6.4 0.00 0.00 0.00 47 1007.8
20260505173031 21 265 3.2 6.4 0.00 0.00 0.00 48 1007.8
20260505172936 20 265 4.8 6.4 0.00 0.00 0.00 47 1007.8
20260505172818 20 268 3.2 6.4 0.00 0.00 0.00 47 1007.8
20260505172723 20 268 4.8 6.4 0.00 0.00 0.00 47 1007.8
20260505172616 20 268 1.6 6.4 0.00 0.00 0.00 47 1007.8
20260505172522 20 267 1.6 6.4 0.00 0.00 0.00 47 1007.8
20260505172417 20 267 3.2 6.4 0.00 0.00 0.00 47 1007.8
20260505172323 20 267 4.8 6.4 0.00 0.00 0.00 47 1007.8
20260505172241 20 267 3.2 6.4 0.00 0.00 0.00 48 1007.8
20260505172125 20 267 1.6 6.4 0.00 0.00 0.00 48 1007.9
20260505172026 20 266 1.6 6.4 0.00 0.00 0.00 48 1007.8
20260505171931 20 266 1.6 6.4 0.00 0.00 0.00 48 1007.8
20260505171827 20 266 0.0 6.4 0.00 0.00 0.00 48 1007.9
20260505171734 20 266 1.6 6.4 0.00 0.00 0.00 48 1007.9
20260505171626 20 266 3.2 6.4 0.00 0.00 0.00 48 1007.9
20260505171553 20 266 3.2 6.4 0.00 0.00 0.00 48 1007.9
20260505171427 20 270 3.2 6.4 0.00 0.00 0.00 50 1007.9
20260505171316 20 270 1.6 6.4 0.00 0.00 0.00 49 1007.9
20260505171214 20 270 1.6 6.4 0.00 0.00 0.00 49 1007.9
20260505171117 20 270 3.2 6.4 0.00 0.00 0.00 48 1007.9
20260505171013 20 270 3.2 6.4 0.00 0.00 0.00 48 1007.9
20260505170919 20 270 3.2 6.4 0.00 0.00 0.00 48 1007.9
20260505170816 20 269 3.2 6.4 0.00 0.00 0.00 48 1007.9
20260505170714 19 269 3.2 4.8 0.00 0.00 0.00 49 1007.9
20260505170622 19 269 3.2 4.8 0.00 0.00 0.00 49 1007.9
20260505170519 19 269 3.2 11.3 0.00 0.00 0.00 49 1007.9
20260505170426 19 269 3.2 11.3 0.00 0.00 0.00 49 1007.9
20260505170322 19 269 1.6 11.3 0.00 0.00 0.00 49 1007.9
20260505170221 19 269 1.6 11.3 0.00 0.00 0.00 49 1007.8
20260505170126 19 269 1.6 11.3 0.00 0.00 0.00 48 1007.9
20260505170023 19 269 1.6 11.3 0.00 0.00 0.00 48 1007.9
20260505165931 19 269 1.6 11.3 0.00 0.00 0.00 49 1007.9
20260505165834 19 269 3.2 11.3 0.00 0.00 0.00 49 1007.9
20260505165740 19 269 6.4 11.3 0.00 0.00 0.00 49 1007.9
20260505165616 19 242 3.2 9.7 0.00 0.00 0.00 49 1007.8
20260505165514 19 240 1.6 9.7 0.00 0.00 0.00 49 1007.9
20260505165412 19 240 3.2 9.7 0.00 0.00 0.00 50 1007.8
20260505165319 19 240 3.2 9.7 0.00 0.00 0.00 50 1007.8
20260505165246 19 240 1.6 9.7 0.00 0.00 0.00 51 1007.9
20260505165128 19 239 3.2 9.7 0.00 0.00 0.00 51 1007.9
20260505165031 19 239 4.8 9.7 0.00 0.00 0.00 51 1007.9
20260505164927 18 239 4.8 9.7 0.00 0.00 0.00 51 1007.9
20260505164833 18 239 8.0 9.7 0.00 0.00 0.00 51 1007.9
20260505164730 18 241 6.4 11.3 0.00 0.00 0.00 50 1007.9
20260505164638 18 246 4.8 11.3 0.00 0.00 0.00 50 1007.9
20260505164518 18 268 4.8 9.7 0.00 0.00 0.00 50 1007.9
20260505164436 18 268 4.8 9.7 0.00 0.00 0.00 50 1007.9
20260505164321 18 267 3.2 9.7 0.00 0.00 0.00 51 1007.9
20260505164218 18 267 0.0 9.7 0.00 0.00 0.00 51 1007.9
20260505164122 18 231 0.0 9.7 0.00 0.00 0.00 52 1007.9
20260505164018 18 231 0.0 9.7 0.00 0.00 0.00 52 1007.9
20260505163916 18 231 0.0 9.7 0.00 0.00 0.00 52 1007.9
20260505163827 18 231 1.6 9.7 0.00 0.00 0.00 52 1007.9
20260505163731 18 231 3.2 9.7 0.00 0.00 0.00 52 1007.9
20260505163630 18 231 4.8 9.7 0.00 0.00 0.00 52 1007.9
20260505163525 18 231 6.4 9.7 0.00 0.00 0.00 53 1007.9
20260505163430 18 231 8.0 9.7 0.00 0.00 0.00 53 1007.9
20260505163326 18 231 6.4 9.7 0.00 0.00 0.00 54 1007.9
20260505163234 18 231 6.4 11.3 0.00 0.00 0.00 55 1007.9
20260505163113 18 232 6.4 11.3 0.00 0.00 0.00 56 1007.9
20260505163039 18 247 6.4 11.3 0.00 0.00 0.00 56 1007.9
20260505162914 17 247 6.4 11.3 0.00 0.00 0.00 57 1007.9
20260505162812 17 252 6.4 9.7 0.00 0.00 0.00 57 1007.9
20260505162739 17 190 6.4 9.7 0.00 0.00 0.00 57 1007.9
20260505162614 17 217 3.2 8.0 0.00 0.00 0.00 57 1007.9
20260505162516 17 219 3.2 8.0 0.00 0.00 0.00 58 1007.9
20260505162422 17 219 4.8 8.0 0.00 0.00 0.00 58 1007.9
20260505162340 17 219 4.8 8.0 0.00 0.00 0.00 58 1007.9
20260505162226 17 219 3.2 6.4 0.00 0.00 0.00 58 1007.9
20260505162121 17 219 0.0 8.0 0.00 0.00 0.00 58 1007.9
20260505162027 17 218 1.6 8.0 0.00 0.00 0.00 58 1007.9
20260505161925 17 218 3.2 8.0 0.00 0.00 0.00 58 1007.9
20260505161836 17 218 3.2 8.0 0.00 0.00 0.00 58 1007.9
20260505161713 16 218 3.2 8.0 0.00 0.00 0.00 59 1007.9
20260505161633 16 218 3.2 8.0 0.00 0.00 0.00 59 1007.9
20260505161536 16 218 4.8 8.0 0.00 0.00 0.00 59 1007.9
20260505161430 16 218 4.8 8.0 0.00 0.00 0.00 60 1008.0
20260505161336 16 218 6.4 8.0 0.00 0.00 0.00 60 1008.0
20260505161213 16 217 4.8 8.0 0.00 0.00 0.00 61 1008.0
20260505161123 16 215 4.8 8.0 0.00 0.00 0.00 61 1008.0
20260505161018 16 215 4.8 6.4 0.00 0.00 0.00 61 1008.0
20260505160914 16 215 4.8 6.4 0.00 0.00 0.00 62 1008.0
20260505160820 16 212 3.2 6.4 0.00 0.00 0.00 62 1008.0
20260505160737 16 212 1.6 6.4 0.00 0.00 0.00 62 1008.0
20260505160619 15 212 1.6 6.4 0.00 0.00 0.00 62 1008.1
20260505160516 15 212 3.2 6.4 0.00 0.00 0.00 61 1008.1
20260505160427 15 212 3.2 6.4 0.00 0.00 0.00 62 1008.1
20260505160322 15 212 3.2 6.4 0.00 0.00 0.00 63 1008.1
20260505160231 15 210 3.2 6.4 0.00 0.00 0.00 63 1008.1
20260505160126 15 210 3.2 6.4 0.00 0.00 0.00 63 1008.1
20260505153325 12 207 4.8 9.7 0.00 0.00 0.00 69 1008.1
20260505153231 12 203 3.2 6.4 0.00 0.00 0.00 69 1008.1
20260505153131 12 203 4.8 6.4 0.00 0.00 0.00 70 1008.1
20260505153036 12 203 4.8 6.4 0.00 0.00 0.00 70 1008.1
20260505152915 12 203 4.8 6.4 0.00 0.00 0.00 70 1008.1
20260505152839 12 202 3.2 6.4 0.00 0.00 0.00 70 1008.1
20260505152726 12 202 3.2 6.4 0.00 0.00 0.00 70 1008.1
20260505152621 12 202 4.8 6.4 0.00 0.00 0.00 71 1008.0
20260505152547 12 202 3.2 6.4 0.00 0.00 0.00 71 1008.1
20260505152451 12 202 4.8 6.4 0.00 0.00 0.00 72 1008.1
20260505152326 11 202 4.8 6.4 0.00 0.00 0.00 72 1008.1
20260505152221 11 202 4.8 6.4 0.00 0.00 0.00 73 1008.0
20260505152133 11 202 3.2 6.4 0.00 0.00 0.00 73 1008.0
20260505152035 11 202 4.8 6.4 0.00 0.00 0.00 74 1008.0
20260505151933 11 202 4.8 6.4 0.00 0.00 0.00 74 1008.1
20260505151859 11 202 4.8 6.4 0.00 0.00 0.00 74 1008.1
20260505151736 11 202 3.2 8.0 0.00 0.00 0.00 75 1008.0
20260505151639 11 202 3.2 8.0 0.00 0.00 0.00 75 1008.0
20260505151514 11 202 4.8 8.0 0.00 0.00 0.00 75 1008.0
20260505151420 11 201 4.8 9.7 0.00 0.00 0.00 75 1008.0
20260505151321 10 201 3.2 9.7 0.00 0.00 0.00 76 1008.0
20260505151229 10 201 3.2 9.7 0.00 0.00 0.00 76 1008.0
20260505151128 10 201 3.2 9.7 0.00 0.00 0.00 76 1008.0
20260505151024 10 201 4.8 9.7 0.00 0.00 0.00 77 1007.9
20260505150928 10 201 4.8 9.7 0.00 0.00 0.00 77 1007.9
20260505150834 10 200 4.8 9.7 0.00 0.00 0.00 78 1007.9
20260505150732 10 200 4.8 9.7 0.00 0.00 0.00 78 1007.9
20260505150636 10 200 6.4 9.7 0.00 0.00 0.00 78 1007.9
20260505150517 10 196 6.4 9.7 0.00 0.00 0.00 79 1007.9
20260505150422 10 184 4.8 9.7 0.00 0.00 0.00 79 1007.9
20260505150319 9 156 3.2 6.4 0.00 0.00 0.00 79 1007.9
20260505150219 9 156 4.8 6.4 0.00 0.00 0.00 79 1007.9
20260505150123 9 156 3.2 6.4 0.00 0.00 0.00 80 1007.9
20260505140619 7 148 0.0 0.0 0.00 0.00 0.00 78 1007.4
20260505140517 7 148 0.0 0.0 0.00 0.00 0.00 78 1007.4
20260505140443 7 148 0.0 0.0 0.00 0.00 0.00 78 1007.4
20260505140318 7 148 0.0 0.0 0.00 0.00 0.00 78 1007.4
20260505140230 7 148 0.0 0.0 0.00 0.00 0.00 78 1007.4
20260505140126 7 148 0.0 0.0 0.00 0.00 0.00 78 1007.4
20260505130228 8 148 0.0 0.0 0.00 0.00 0.00 74 1006.8
20260505130125 8 148 0.0 0.0 0.00 0.00 0.00 74 1006.7
20260505125026 8 148 0.0 0.0 0.00 0.00 0.00 74 1006.6
20260505124924 8 148 0.0 0.0 0.00 0.00 0.00 74 1006.6
20260505124819 8 148 0.0 0.0 0.00 0.00 0.00 74 1006.6
20260505124725 8 148 0.0 0.0 0.00 0.00 0.00 75 1006.6
20260505124621 8 148 0.0 0.0 0.00 0.00 0.00 75 1006.6
20260505124528 8 148 0.0 0.0 0.00 0.00 0.00 75 1006.6
20260505124425 8 148 0.0 0.0 0.00 0.00 0.00 75 1006.6
20260505124351 8 148 0.0 0.0 0.00 0.00 0.00 76 1006.6
20260505124228 8 148 0.0 0.0 0.00 0.00 0.00 76 1006.5
20260505124136 8 148 0.0 0.0 0.00 0.00 0.00 76 1006.5
20260505124030 8 148 0.0 0.0 0.00 0.00 0.00 76 1006.6
20260505123911 8 148 0.0 0.0 0.00 0.00 0.00 77 1006.6
20260505123817 8 148 0.0 0.0 0.00 0.00 0.00 77 1006.5
20260505123716 8 148 0.0 0.0 0.00 0.00 0.00 77 1006.6
20260505123621 8 148 0.0 0.0 0.00 0.00 0.00 77 1006.6
20260505123519 8 148 0.0 0.0 0.00 0.00 0.00 78 1006.5
20260505123446 8 148 0.0 0.0 0.00 0.00 0.00 78 1006.5
20260505123323 8 148 0.0 0.0 0.00 0.00 0.00 78 1006.5
20260505123214 8 148 0.0 0.0 0.00 0.00 0.00 78 1006.5
20260505123130 8 148 0.0 0.0 0.00 0.00 0.00 78 1006.5
20260505123035 8 148 0.0 0.0 0.00 0.00 0.00 78 1006.5
20260505122911 8 148 0.0 0.0 0.00 0.00 0.00 77 1006.6
20260505122829 8 148 0.0 0.0 0.00 0.00 0.00 77 1006.6
20260505122718 8 148 0.0 0.0 0.00 0.00 0.00 77 1006.6
20260505122617 8 148 0.0 0.0 0.00 0.00 0.00 77 1006.5
20260505122514 8 148 0.0 0.0 0.00 0.00 0.00 76 1006.6
20260505122421 8 148 0.0 0.0 0.00 0.00 0.00 76 1006.5
20260505122319 8 148 0.0 0.0 0.00 0.00 0.00 76 1006.6
20260505122227 8 148 0.0 0.0 0.00 0.00 0.00 76 1006.6
20260505122123 8 148 0.0 0.0 0.00 0.00 0.00 76 1006.6
20260505122020 8 148 0.0 0.0 0.00 0.00 0.00 76 1006.5
20260505121951 8 148 0.0 0.0 0.00 0.00 0.00 75 1006.5
20260505121836 8 148 0.0 0.0 0.00 0.00 0.00 75 1006.6
20260505121715 8 148 0.0 0.0 0.00 0.00 0.00 75 1006.6
20260505121616 8 148 0.0 0.0 0.00 0.00 0.00 75 1006.6
20260505121513 8 148 0.0 0.0 0.00 0.00 0.00 75 1006.5
20260505121420 8 148 0.0 0.0 0.00 0.00 0.00 75 1006.5
20260505121316 8 148 0.0 0.0 0.00 0.00 0.00 75 1006.5
20260505121228 8 148 0.0 0.0 0.00 0.00 0.00 75 1006.5
20260505121123 8 148 0.0 0.0 0.00 0.00 0.00 75 1006.5
20260505121020 8 148 0.0 0.0 0.00 0.00 0.00 75 1006.5
20260505120927 8 148 0.0 0.0 0.00 0.00 0.00 74 1006.5
20260505120823 8 148 0.0 0.0 0.00 0.00 0.00 74 1006.5
20260505120730 8 148 0.0 0.0 0.00 0.00 0.00 74 1006.5
20260505120611 8 148 0.0 0.0 0.00 0.00 0.00 73 1006.5
20260505120537 8 148 0.0 0.0 0.00 0.00 0.00 73 1006.5
20260505120432 8 148 0.0 0.0 0.00 0.00 0.00 73 1006.5
20260505120358 8 148 0.0 0.0 0.00 0.00 0.00 72 1006.4
20260505120214 8 148 0.0 0.0 0.00 0.00 0.00 72 1006.4
20260505120132 8 148 0.0 0.0 0.00 0.00 0.00 72 1006.4
20260505120037 8 148 0.0 0.0 0.00 0.00 0.00 72 1006.4
20260505115919 8 148 0.0 0.0 0.00 0.00 0.00 71 1006.4
20260505115846 8 148 0.0 0.0 0.00 0.00 0.00 71 1006.4
20260505115722 8 148 0.0 0.0 0.00 0.00 0.00 71 1006.4
20260505115623 8 148 0.0 0.0 0.00 0.00 0.00 71 1006.4
20260505115520 8 148 0.0 0.0 0.00 0.00 0.00 71 1006.4
20260505115416 8 148 0.0 0.0 0.00 0.00 0.00 71 1006.4
20260505115323 9 148 0.0 0.0 0.00 0.00 0.00 71 1006.4
20260505115228 9 148 0.0 0.0 0.00 0.00 0.00 71 1006.4
20260505115128 9 148 0.0 0.0 0.00 0.00 0.00 70 1006.4
20260505115023 9 148 0.0 0.0 0.00 0.00 0.00 70 1006.4
20260505114928 9 148 0.0 0.0 0.00 0.00 0.00 70 1006.4
20260505114854 9 148 0.0 0.0 0.00 0.00 0.00 70 1006.4
20260505114730 9 148 0.0 0.0 0.00 0.00 0.00 69 1006.4
20260505114657 9 148 0.0 0.0 0.00 0.00 0.00 69 1006.4
20260505114512 9 148 0.0 0.0 0.00 0.00 0.00 70 1006.3
20260505114413 9 148 0.0 0.0 0.00 0.00 0.00 69 1006.4
20260505114318 9 148 0.0 0.0 0.00 0.00 0.00 69 1006.4
20260505114218 9 148 0.0 0.0 0.00 0.00 0.00 69 1006.4
20260505114123 9 148 0.0 0.0 0.00 0.00 0.00 69 1006.4
20260505114020 9 148 0.0 0.0 0.00 0.00 0.00 69 1006.4
20260505113926 9 148 0.0 0.0 0.00 0.00 0.00 69 1006.4
20260505113823 9 148 0.0 0.0 0.00 0.00 0.00 69 1006.3
20260505113734 9 148 0.0 0.0 0.00 0.00 0.00 70 1006.3
20260505113629 9 148 0.0 0.0 0.00 0.00 0.00 69 1006.4
20260505113553 9 148 0.0 0.0 0.00 0.00 0.00 69 1006.4
20260505113429 9 148 0.0 0.0 0.00 0.00 0.00 69 1006.4
20260505113333 9 148 0.0 0.0 0.00 0.00 0.00 69 1006.4
20260505113240 9 148 0.0 0.0 0.00 0.00 0.00 69 1006.4
20260505113134 9 148 0.0 0.0 0.00 0.00 0.00 68 1006.4
20260505113038 9 148 0.0 0.0 0.00 0.00 0.00 68 1006.4
20260505112919 9 148 0.0 0.0 0.00 0.00 0.00 68 1006.4
20260505112817 9 148 0.0 0.0 0.00 0.00 0.00 68 1006.4
20260505112725 9 148 0.0 0.0 0.00 0.00 0.00 67 1006.4
20260505112620 9 148 0.0 0.0 0.00 0.00 0.00 67 1006.4
20260505112545 9 148 0.0 0.0 0.00 0.00 0.00 67 1006.4
20260505112450 9 148 0.0 0.0 0.00 0.00 0.00 67 1006.4
20260505112324 9 148 0.0 0.0 0.00 0.00 0.00 67 1006.4
20260505112226 9 148 0.0 0.0 0.00 0.00 0.00 66 1006.4
20260505112153 9 148 0.0 0.0 0.00 0.00 0.00 66 1006.4
20260505112036 10 148 0.0 0.0 0.00 0.00 0.00 66 1006.4
20260505111911 10 148 0.0 0.0 0.00 0.00 0.00 66 1006.4
20260505111827 10 148 0.0 0.0 0.00 0.00 0.00 66 1006.4
20260505111712 10 148 0.0 0.0 0.00 0.00 0.00 66 1006.4
20260505111640 10 148 0.0 0.0 0.00 0.00 0.00 66 1006.4
20260505111520 10 148 0.0 0.0 0.00 0.00 0.00 66 1006.4
20260505111417 10 148 0.0 0.0 0.00 0.00 0.00 65 1006.3
20260505111315 10 148 0.0 0.0 0.00 0.00 0.00 65 1006.3
20260505111222 10 148 0.0 0.0 0.00 0.00 0.00 65 1006.3
20260505111117 10 148 0.0 0.0 0.00 0.00 0.00 65 1006.3
20260505111043 10 148 0.0 0.0 0.00 0.00 0.00 65 1006.2
20260505110919 10 148 0.0 0.0 0.00 0.00 0.00 65 1006.3
20260505110824 10 148 0.0 0.0 0.00 0.00 0.00 65 1006.2
20260505110716 10 148 0.0 0.0 0.00 0.00 0.00 65 1006.2
20260505110612 10 148 0.0 0.0 0.00 0.00 0.00 65 1006.2
20260505110538 10 148 0.0 0.0 0.00 0.00 0.00 65 1006.2
20260505110414 10 148 0.0 0.0 0.00 0.00 0.00 65 1006.2
20260505110319 10 148 0.0 0.0 0.00 0.00 0.00 65 1006.2
20260505110217 10 148 0.0 0.0 0.00 0.00 0.00 65 1006.1
20260505110120 10 148 0.0 0.0 0.00 0.00 0.00 65 1006.2
20260505102137 11 148 0.0 0.0 0.00 0.00 0.00 63 1006.0
20260505102023 11 148 0.0 0.0 0.00 0.00 0.00 64 1006.0
20260505101921 11 148 0.0 0.0 0.00 0.00 0.00 64 1006.0
20260505101827 11 148 0.0 0.0 0.00 0.00 0.00 64 1006.0
20260505101724 11 148 0.0 0.0 0.00 0.00 0.00 63 1006.0
20260505101656 11 148 0.0 0.0 0.00 0.00 0.00 63 1006.0
20260505101538 11 148 0.0 0.0 0.00 0.00 0.00 63 1006.0
20260505101416 11 148 0.0 0.0 0.00 0.00 0.00 63 1006.0
20260505101311 11 148 0.0 0.0 0.00 0.00 0.00 63 1006.0
20260505101239 11 148 0.0 0.0 0.00 0.00 0.00 63 1005.9
20260505101112 11 148 0.0 0.0 0.00 0.00 0.00 63 1005.9
20260505101019 11 148 0.0 0.0 0.00 0.00 0.00 63 1006.0
20260505100921 11 148 0.0 0.0 0.00 0.00 0.00 63 1006.0
20260505100826 11 148 0.0 0.0 0.00 0.00 0.00 63 1006.0
20260505100723 11 148 0.0 0.0 0.00 0.00 0.00 63 1006.0
20260505100631 11 148 0.0 0.0 0.00 0.00 0.00 63 1006.0
20260505100527 11 148 0.0 0.0 0.00 0.00 0.00 63 1006.0
20260505100432 11 148 0.0 0.0 0.00 0.00 0.00 63 1006.0
20260505100235 11 148 0.0 0.0 0.00 0.00 0.00 63 1006.0
20260505100133 11 148 0.0 0.0 0.00 0.00 0.00 63 1006.0
20260505100019 11 148 0.0 0.0 0.00 0.00 0.00 63 1006.0
20260505095935 11 148 0.0 0.0 0.00 0.00 0.00 63 1006.0
20260505095820 11 148 0.0 0.0 0.00 0.00 0.00 63 1006.0
20260505095719 11 148 0.0 0.0 0.00 0.00 0.00 63 1006.0
20260505095624 11 148 0.0 0.0 0.00 0.00 0.00 64 1006.0
20260505095521 11 148 0.0 0.0 0.00 0.00 0.00 64 1006.0
20260505095451 11 148 0.0 0.0 0.00 0.00 0.00 64 1006.0
20260505095328 12 148 0.0 0.0 0.00 0.00 0.00 64 1006.0
20260505095237 11 148 0.0 0.0 0.00 0.00 0.00 64 1006.0
20260505095111 12 148 0.0 0.0 0.00 0.00 0.00 65 1006.0
20260505095037 12 148 0.0 0.0 0.00 0.00 0.00 65 1006.0
20260505094914 12 148 0.0 0.0 0.00 0.00 0.00 65 1005.9
20260505094839 12 148 0.0 0.0 0.00 0.00 0.00 65 1005.9
20260505094743 12 148 0.0 0.0 0.00 0.00 0.00 64 1005.9
20260505094647 12 148 0.0 0.0 0.00 0.00 0.00 64 1006.0
20260505094518 12 148 0.0 0.0 0.00 0.00 0.00 63 1005.9
20260505094425 12 148 0.0 0.0 0.00 0.00 0.00 63 1005.9
20260505094323 12 148 0.0 0.0 0.00 0.00 0.00 62 1005.9
20260505094230 11 148 0.0 0.0 0.00 0.00 0.00 62 1005.9
20260505094125 12 148 0.0 0.0 0.00 0.00 0.00 61 1005.9
20260505094031 12 148 0.0 0.0 0.00 0.00 0.00 60 1005.9
20260505093911 11 148 0.0 0.0 0.00 0.00 0.00 60 1006.0
20260505093827 12 148 0.0 0.0 0.00 0.00 0.00 60 1006.0
20260505093733 12 148 0.0 0.0 0.00 0.00 0.00 60 1006.0
20260505093640 12 148 0.0 0.0 0.00 0.00 0.00 60 1006.0
20260505093515 12 148 0.0 0.0 0.00 0.00 0.00 60 1006.0
20260505093412 12 148 0.0 0.0 0.00 0.00 0.00 60 1006.0
20260505093337 12 148 0.0 0.0 0.00 0.00 0.00 60 1006.0
20260505093220 12 148 0.0 0.0 0.00 0.00 0.00 60 1006.0
20260505093125 12 148 0.0 0.0 0.00 0.00 0.00 60 1006.0
20260505093023 12 148 0.0 0.0 0.00 0.00 0.00 60 1006.0
20260505092949 12 148 0.0 0.0 0.00 0.00 0.00 61 1006.0
20260505092826 12 148 0.0 0.0 0.00 0.00 0.00 61 1006.0
20260505092735 12 148 0.0 0.0 0.00 0.00 0.00 61 1006.0
20260505092614 12 148 0.0 0.0 0.00 0.00 0.00 61 1006.1
20260505092540 12 148 0.0 0.0 0.00 0.00 0.00 61 1006.1
20260505092417 12 148 0.0 0.0 0.00 0.00 0.00 61 1006.1
20260505092314 12 148 0.0 0.0 0.00 0.00 0.00 61 1006.1
20260505092213 12 148 0.0 0.0 0.00 0.00 0.00 61 1006.1
20260505092116 12 148 0.0 0.0 0.00 0.00 0.00 61 1006.0
20260505092014 12 148 0.0 0.0 0.00 0.00 0.00 61 1006.0
20260505091924 12 148 0.0 0.0 0.00 0.00 0.00 62 1006.1
20260505091841 12 148 0.0 0.0 0.00 0.00 0.00 62 1006.0
20260505091726 12 148 0.0 0.0 0.00 0.00 0.00 62 1006.0
20260505091632 12 148 0.0 0.0 0.00 0.00 0.00 62 1006.0
20260505091526 12 148 0.0 0.0 0.00 0.00 0.00 62 1006.0
20260505091424 12 148 0.0 0.0 0.00 0.00 0.00 63 1006.0
20260505091330 12 148 0.0 0.0 0.00 0.00 0.00 63 1006.0
20260505091237 12 148 0.0 0.0 0.00 0.00 0.00 63 1006.0
20260505091115 12 148 0.0 0.0 0.00 0.00 0.00 63 1006.0
20260505091011 12 148 0.0 0.0 0.00 0.00 0.00 62 1006.0
20260505090938 12 148 0.0 0.0 0.00 0.00 0.00 62 1006.0
20260505090816 12 148 0.0 0.0 0.00 0.00 0.00 62 1006.0
20260505090715 12 148 0.0 0.0 0.00 0.00 0.00 61 1006.0
20260505090621 12 148 0.0 0.0 0.00 0.00 0.00 61 1006.0
20260505090531 12 148 0.0 0.0 0.00 0.00 0.00 61 1006.0
20260505090428 12 148 0.0 0.0 0.00 0.00 0.00 61 1006.0
20260505090354 12 148 0.0 0.0 0.00 0.00 0.00 61 1006.0
20260505090248 12 148 0.0 0.0 0.00 0.00 0.00 61 1006.0
20260505090137 12 148 0.0 0.0 0.00 0.00 0.00 61 1005.9
20260505090014 12 148 0.0 0.0 0.00 0.00 0.00 61 1006.0
20260505085939 12 148 0.0 0.0 0.00 0.00 0.00 60 1006.0
20260505085836 12 148 0.0 0.0 0.00 0.00 0.00 60 1006.0
20260505085727 12 148 0.0 0.0 0.00 0.00 0.00 60 1006.0
20260505085621 12 148 0.0 0.0 0.00 0.00 0.00 59 1005.9
20260505085526 12 148 0.0 0.0 0.00 0.00 0.00 59 1005.9
20260505085441 12 148 0.0 0.0 0.00 0.00 0.00 59 1005.9
20260505085327 12 148 0.0 0.0 0.00 0.00 0.00 58 1005.9
20260505085223 12 148 0.0 0.0 0.00 0.00 0.00 58 1005.9
20260505085132 12 148 0.0 0.0 0.00 0.00 0.00 57 1005.9
20260505085011 12 148 0.0 0.0 0.00 0.00 0.00 56 1005.9
20260505084938 12 148 0.0 0.0 0.00 0.00 0.00 56 1005.9
20260505084815 12 148 0.0 0.0 0.00 0.00 0.00 57 1005.9
20260505084714 12 148 0.0 0.0 0.00 0.00 0.00 57 1005.9
20260505084610 12 148 0.0 0.0 0.00 0.00 0.00 57 1005.8
20260505084515 12 148 0.0 0.0 0.00 0.00 0.00 57 1005.9
20260505084420 12 148 0.0 0.0 0.00 0.00 0.00 57 1005.8
20260505084319 12 148 0.0 0.0 0.00 0.00 0.00 57 1005.9
20260505084226 12 148 0.0 0.0 0.00 0.00 0.00 57 1005.9
20260505084121 12 148 0.0 0.0 0.00 0.00 0.00 57 1005.8
20260505084025 12 148 0.0 0.0 0.00 0.00 0.00 56 1005.8
20260505083922 12 148 0.0 0.0 0.00 0.00 0.00 55 1005.9
20260505083828 12 148 0.0 0.0 0.00 0.00 0.00 55 1005.9
20260505083726 12 148 0.0 0.0 0.00 0.00 0.00 54 1005.9
20260505083614 12 148 0.0 0.0 0.00 0.00 0.00 53 1005.9
20260505083511 12 148 0.0 0.0 0.00 0.00 0.00 53 1005.9
20260505083437 12 148 0.0 0.0 0.00 0.00 0.00 53 1005.9
20260505083312 12 148 0.0 0.0 0.00 0.00 0.00 52 1005.9
20260505083220 12 148 0.0 0.0 0.00 0.00 0.00 52 1005.9
20260505083134 12 148 0.0 0.0 0.00 0.00 0.00 51 1005.9
20260505083038 12 148 0.0 0.0 0.00 0.00 0.00 51 1005.9
20260505082914 12 148 0.0 0.0 0.00 0.00 0.00 51 1005.9
20260505082824 12 148 0.0 0.0 0.00 0.00 0.00 51 1005.9
20260505082722 12 148 0.0 0.0 0.00 0.00 0.00 50 1005.9
20260505082651 12 148 0.0 0.0 0.00 0.00 0.00 50 1005.9
20260505082531 12 148 0.0 0.0 0.00 0.00 0.00 49 1005.9
20260505082428 13 148 0.0 0.0 0.00 0.00 0.00 49 1005.9
20260505082326 13 148 0.0 0.0 0.00 0.00 0.00 48 1005.9
20260505082233 13 148 0.0 0.0 0.00 0.00 0.00 48 1005.9
20260505082111 13 148 0.0 0.0 0.00 0.00 0.00 48 1005.9
20260505082036 13 148 0.0 0.0 0.00 0.00 0.00 48 1005.9
20260505081913 13 148 0.0 0.0 0.00 0.00 0.00 48 1006.0
20260505081811 13 148 0.0 0.0 0.00 0.00 0.00 48 1005.9
20260505081739 13 148 0.0 0.0 0.00 0.00 0.00 48 1005.9
20260505081613 13 148 0.0 0.0 0.00 0.00 0.00 47 1005.9
20260505081539 13 148 0.0 0.0 0.00 0.00 0.00 47 1005.9
20260505081438 13 148 0.0 0.0 0.00 0.00 0.00 47 1005.9
20260505081322 13 148 0.0 1.6 0.00 0.00 0.00 47 1005.9
20260505081249 13 148 0.0 3.2 0.00 0.00 0.00 47 1005.9
20260505081120 13 148 0.0 4.8 0.00 0.00 0.00 47 1005.9
20260505081017 13 148 0.0 4.8 0.00 0.00 0.00 47 1005.9
20260505080924 13 148 0.0 4.8 0.00 0.00 0.00 47 1005.8
20260505080822 13 148 0.0 4.8 0.00 0.00 0.00 47 1005.9
20260505080713 13 148 0.0 4.8 0.00 0.00 0.00 47 1005.9
20260505080627 13 148 0.0 4.8 0.00 0.00 0.00 47 1005.9
20260505080513 13 148 1.6 4.8 0.00 0.00 0.00 47 1005.9
20260505080429 13 148 3.2 4.8 0.00 0.00 0.00 47 1005.9
20260505080335 13 148 3.2 4.8 0.00 0.00 0.00 47 1005.8
20260505080211 13 148 1.6 3.2 0.00 0.00 0.00 47 1005.9
20260505080129 13 148 0.0 3.2 0.00 0.00 0.00 46 1005.9
20260505080016 13 148 0.0 3.2 0.00 0.00 0.00 46 1005.9
20260505075914 13 148 1.6 3.2 0.00 0.00 0.00 46 1005.9
20260505075840 13 148 1.6 3.2 0.00 0.00 0.00 45 1005.9
20260505075718 13 148 1.6 3.2 0.00 0.00 0.00 45 1005.9
20260505075621 13 148 1.6 4.8 0.00 0.00 0.00 45 1005.8
20260505075547 13 148 1.6 4.8 0.00 0.00 0.00 45 1005.9
20260505075421 13 148 1.6 4.8 0.00 0.00 0.00 45 1005.8
20260505075317 13 148 0.0 4.8 0.00 0.00 0.00 45 1005.7
20260505075230 13 148 1.6 4.8 0.00 0.00 0.00 45 1005.7
20260505075126 13 148 0.0 4.8 0.00 0.00 0.00 45 1005.8
20260505075030 13 148 1.6 4.8 0.00 0.00 0.00 45 1005.8
20260505074926 13 148 1.6 4.8 0.00 0.00 0.00 45 1005.8
20260505074832 13 148 1.6 4.8 0.00 0.00 0.00 44 1005.8
20260505074729 13 148 3.2 4.8 0.00 0.00 0.00 44 1005.8
20260505074637 13 148 3.2 4.8 0.00 0.00 0.00 44 1005.8
20260505074517 13 148 3.2 4.8 0.00 0.00 0.00 45 1005.8
20260505074444 13 148 3.2 4.8 0.00 0.00 0.00 45 1005.8
20260505074320 13 148 3.2 4.8 0.00 0.00 0.00 45 1005.9
20260505074219 13 148 1.6 4.8 0.00 0.00 0.00 45 1005.9
20260505074125 13 148 1.6 4.8 0.00 0.00 0.00 45 1005.8
20260505074023 14 148 1.6 4.8 0.00 0.00 0.00 45 1005.8
20260505073932 14 148 1.6 4.8 0.00 0.00 0.00 44 1005.8
20260505073827 14 148 3.2 4.8 0.00 0.00 0.00 44 1005.7
20260505073735 14 148 3.2 4.8 0.00 0.00 0.00 44 1005.7
20260505073611 14 148 1.6 3.2 0.00 0.00 0.00 44 1005.7
20260505073536 14 148 1.6 3.2 0.00 0.00 0.00 44 1005.7
20260505073412 14 148 0.0 3.2 0.00 0.00 0.00 44 1005.7
20260505073329 14 148 1.6 4.8 0.00 0.00 0.00 44 1005.7
20260505073221 14 148 1.6 4.8 0.00 0.00 0.00 44 1005.7
20260505073136 14 148 0.0 4.8 0.00 0.00 0.00 43 1005.7
20260505073041 14 148 0.0 4.8 0.00 0.00 0.00 43 1005.6
20260505072945 14 148 0.0 4.8 0.00 0.00 0.00 42 1005.7
20260505072850 14 148 1.6 4.8 0.00 0.00 0.00 42 1005.7
20260505072727 14 148 1.6 4.8 0.00 0.00 0.00 42 1005.7
20260505072623 14 148 3.2 4.8 0.00 0.00 0.00 42 1005.7
20260505072548 14 148 3.2 4.8 0.00 0.00 0.00 42 1005.7
20260505072434 14 148 3.2 4.8 0.00 0.00 0.00 42 1005.7
20260505072313 14 148 3.2 4.8 0.00 0.00 0.00 41 1005.7
20260505072212 14 148 3.2 4.8 0.00 0.00 0.00 41 1005.7
20260505072118 14 148 3.2 4.8 0.00 0.00 0.00 41 1005.6
20260505072016 14 148 1.6 3.2 0.00 0.00 0.00 41 1005.6
20260505071921 14 148 0.0 3.2 0.00 0.00 0.00 41 1005.7
20260505071817 14 148 0.0 3.2 0.00 0.00 0.00 41 1005.6
20260505071723 14 148 1.6 3.2 0.00 0.00 0.00 41 1005.6
20260505071655 14 148 1.6 4.8 0.00 0.00 0.00 41 1005.6
20260505071530 14 148 1.6 4.8 0.00 0.00 0.00 41 1005.6
20260505071455 14 148 1.6 4.8 0.00 0.00 0.00 41 1005.6
20260505071311 15 148 0.0 4.8 0.00 0.00 0.00 41 1005.6
20260505071239 15 148 0.0 4.8 0.00 0.00 0.00 41 1005.6
20260505071113 15 148 0.0 4.8 0.00 0.00 0.00 41 1005.5
20260505071038 15 148 1.6 4.8 0.00 0.00 0.00 41 1005.5
20260505070919 15 148 3.2 4.8 0.00 0.00 0.00 40 1005.5
20260505070815 15 148 3.2 4.8 0.00 0.00 0.00 40 1005.5
20260505070720 15 148 3.2 4.8 0.00 0.00 0.00 40 1005.5
20260505070648 15 148 3.2 4.8 0.00 0.00 0.00 40 1005.5
20260505070600 15 148 1.6 4.8 0.00 0.00 0.00 41 1005.5
20260505070422 15 148 0.0 1.6 0.00 0.00 0.00 40 1005.5
20260505070320 15 148 0.0 1.6 0.00 0.00 0.00 40 1005.5
20260505070226 15 148 0.0 1.6 0.00 0.00 0.00 40 1005.5
20260505070130 15 148 0.0 3.2 0.00 0.00 0.00 40 1005.5
20260505070013 15 148 0.0 3.2 0.00 0.00 0.00 40 1005.5
20260505065930 15 148 0.0 3.2 0.00 0.00 0.00 40 1005.5
20260505065837 15 148 0.0 3.2 0.00 0.00 0.00 40 1005.5
20260505065715 15 148 0.0 3.2 0.00 0.00 0.00 40 1005.4
20260505065620 15 148 0.0 3.2 0.00 0.00 0.00 40 1005.4
20260505065518 15 148 0.0 3.2 0.00 0.00 0.00 40 1005.4
20260505065420 15 148 1.6 3.2 0.00 0.00 0.00 39 1005.4
20260505065327 15 148 1.6 4.8 0.00 0.00 0.00 39 1005.4
20260505065224 15 148 0.0 4.8 0.00 0.00 0.00 39 1005.4
20260505065132 15 148 0.0 4.8 0.00 0.00 0.00 39 1005.4
20260505065026 15 148 0.0 4.8 0.00 0.00 0.00 39 1005.3
20260505064912 15 148 0.0 4.8 0.00 0.00 0.00 39 1005.4
20260505064812 15 148 0.0 6.4 0.00 0.00 0.00 39 1005.3
20260505064740 15 148 1.6 6.4 0.00 0.00 0.00 39 1005.3
20260505064635 15 148 3.2 6.4 0.00 0.00 0.00 39 1005.4
20260505064521 15 148 3.2 6.4 0.00 0.00 0.00 39 1005.3
20260505064439 15 148 3.2 6.4 0.00 0.00 0.00 39 1005.3
20260505064324 15 148 3.2 6.4 0.00 0.00 0.00 39 1005.3
20260505064249 15 148 3.2 6.4 0.00 0.00 0.00 39 1005.3
20260505064123 15 148 3.2 6.4 0.00 0.00 0.00 39 1005.3
20260505064028 15 148 4.8 6.4 0.00 0.00 0.00 39 1005.3
20260505063928 15 148 4.8 6.4 0.00 0.00 0.00 39 1005.3
20260505063833 15 148 3.2 4.8 0.00 0.00 0.00 39 1005.3
20260505063712 15 148 3.2 4.8 0.00 0.00 0.00 39 1005.3
20260505063627 15 148 3.2 6.4 0.00 0.00 0.00 39 1005.3
20260505063532 15 148 4.8 6.4 0.00 0.00 0.00 39 1005.4
20260505063429 15 148 3.2 8.0 0.00 0.00 0.00 39 1005.3
20260505063339 15 148 3.2 8.0 0.00 0.00 0.00 39 1005.3
20260505063213 15 148 3.2 8.0 0.00 0.00 0.00 39 1005.4
20260505063132 15 148 3.2 8.0 0.00 0.00 0.00 39 1005.4
20260505063013 15 148 3.2 8.0 0.00 0.00 0.00 39 1005.4
20260505062938 15 148 3.2 8.0 0.00 0.00 0.00 39 1005.4
20260505062833 15 148 4.8 8.0 0.00 0.00 0.00 39 1005.4
20260505062741 15 148 4.8 8.0 0.00 0.00 0.00 39 1005.4
20260505062620 15 148 6.4 8.0 0.00 0.00 0.00 39 1005.3
20260505062518 15 142 6.4 8.0 0.00 0.00 0.00 40 1005.3
20260505062425 15 133 4.8 9.7 0.00 0.00 0.00 39 1005.3
20260505062321 15 100 4.8 6.4 0.00 0.00 0.00 39 1005.4
20260505062230 15 99 4.8 6.4 0.00 0.00 0.00 39 1005.4
20260505062125 15 92 4.8 6.4 0.00 0.00 0.00 39 1005.4
20260505062022 15 72 3.2 6.4 0.00 0.00 0.00 39 1005.4
20260505061913 15 68 1.6 4.8 0.00 0.00 0.00 39 1005.4
20260505061829 15 68 0.0 0.0 0.00 0.00 0.00 39 1005.4
20260505061737 15 68 0.0 0.0 0.00 0.00 0.00 39 1005.3
20260505061611 15 62 0.0 0.0 0.00 0.00 0.00 39 1005.4
20260505061528 15 62 0.0 0.0 0.00 0.00 0.00 39 1005.4
20260505061434 15 62 0.0 0.0 0.00 0.00 0.00 39 1005.3
20260505061313 15 62 0.0 0.0 0.00 0.00 0.00 39 1005.3
20260505061221 15 62 0.0 0.0 0.00 0.00 0.00 39 1005.3
20260505061144 15 62 0.0 0.0 0.00 0.00 0.00 39 1005.3
20260505061048 15 62 0.0 0.0 0.00 0.00 0.00 39 1005.3
20260505060923 15 62 0.0 0.0 0.00 0.00 0.00 39 1005.3
20260505060829 15 62 0.0 0.0 0.00 0.00 0.00 39 1005.3
20260505060726 15 62 0.0 0.0 0.00 0.00 0.00 39 1005.2
20260505060635 15 62 0.0 0.0 0.00 0.00 0.00 39 1005.3
20260505060515 15 62 0.0 0.0 0.00 0.00 0.00 39 1005.2
20260505060410 15 62 0.0 0.0 0.00 0.00 0.00 39 1005.2
20260505060337 15 62 0.0 0.0 0.00 0.00 0.00 38 1005.3
20260505060224 15 62 0.0 0.0 0.00 0.00 0.00 38 1005.2
20260505060120 15 62 0.0 0.0 0.00 0.00 0.00 38 1005.2
20260505060047 15 62 0.0 0.0 0.00 0.00 0.00 38 1005.2
20260505055930 16 62 0.0 0.0 0.00 0.00 0.00 38 1005.2
20260505055825 16 62 0.0 0.0 0.00 0.00 0.00 38 1005.2
20260505055734 16 62 0.0 0.0 0.00 0.00 0.00 38 1005.2
20260505055614 16 62 0.0 0.0 0.00 0.00 0.00 38 1005.2
20260505055540 16 62 0.0 0.0 0.00 0.00 0.00 38 1005.2
20260505055415 16 62 0.0 0.0 0.00 0.00 0.00 38 1005.2
20260505055313 16 62 0.0 0.0 0.00 0.00 0.00 38 1005.2
20260505055222 16 62 0.0 0.0 0.00 0.00 0.00 38 1005.2
20260505055116 16 62 0.0 0.0 0.00 0.00 0.00 38 1005.2
20260505055043 16 62 0.0 0.0 0.00 0.00 0.00 38 1005.2
20260505054932 16 62 0.0 0.0 0.00 0.00 0.00 38 1005.2
20260505054827 16 62 0.0 0.0 0.00 0.00 0.00 38 1005.2
20260505054733 16 62 0.0 3.2 0.00 0.00 0.00 38 1005.3
20260505054641 16 62 0.0 3.2 0.00 0.00 0.00 38 1005.3
20260505054516 16 62 0.0 4.8 0.00 0.00 0.00 38 1005.1
20260505054413 16 62 0.0 4.8 0.00 0.00 0.00 38 1005.2
20260505054339 16 62 0.0 4.8 0.00 0.00 0.00 38 1005.2
20260505054220 16 62 0.0 4.8 0.00 0.00 0.00 37 1005.1
20260505054116 16 62 0.0 4.8 0.00 0.00 0.00 37 1005.1
20260505054020 16 62 0.0 4.8 0.00 0.00 0.00 37 1005.1
20260505053914 16 62 1.6 4.8 0.00 0.00 0.00 37 1005.1
20260505053838 16 62 1.6 4.8 0.00 0.00 0.00 37 1005.1
20260505053718 16 62 3.2 4.8 0.00 0.00 0.00 37 1005.1
20260505053643 16 62 1.6 4.8 0.00 0.00 0.00 37 1005.1
20260505053522 16 62 1.6 4.8 0.00 0.00 0.00 37 1005.0
20260505053415 16 62 1.6 4.8 0.00 0.00 0.00 36 1005.1
20260505053321 16 62 1.6 4.8 0.00 0.00 0.00 36 1005.0
20260505053221 16 62 1.6 4.8 0.00 0.00 0.00 36 1005.1
20260505053124 16 62 1.6 4.8 0.00 0.00 0.00 36 1005.1
20260505053019 16 62 1.6 4.8 0.00 0.00 0.00 37 1005.1
20260505052926 17 61 1.6 4.8 0.00 0.00 0.00 37 1005.1
20260505052828 17 61 1.6 4.8 0.00 0.00 0.00 37 1005.1
20260505052734 17 61 3.2 4.8 0.00 0.00 0.00 37 1005.1
20260505052632 17 61 3.2 4.8 0.00 0.00 0.00 36 1005.1
20260505052515 17 61 3.2 4.8 0.00 0.00 0.00 36 1005.1
20260505052411 17 61 3.2 4.8 0.00 0.00 0.00 36 1005.1
20260505052330 17 61 3.2 4.8 0.00 0.00 0.00 36 1005.1
20260505052226 17 61 3.2 4.8 0.00 0.00 0.00 36 1005.0
20260505052137 17 61 3.2 4.8 0.00 0.00 0.00 36 1005.1
20260505052033 17 61 3.2 4.8 0.00 0.00 0.00 36 1005.1
20260505051958 17 61 3.2 4.8 0.00 0.00 0.00 36 1005.1
20260505051812 17 61 3.2 4.8 0.00 0.00 0.00 36 1005.1
20260505051740 17 61 3.2 4.8 0.00 0.00 0.00 36 1005.1
20260505051614 17 61 3.2 6.4 0.00 0.00 0.00 36 1005.1
20260505051511 17 61 3.2 6.4 0.00 0.00 0.00 36 1005.1
20260505051441 17 61 3.2 6.4 0.00 0.00 0.00 36 1005.0
20260505051316 17 61 3.2 6.4 0.00 0.00 0.00 36 1005.0
20260505051223 17 61 3.2 6.4 0.00 0.00 0.00 36 1005.0
20260505051118 17 61 3.2 6.4 0.00 0.00 0.00 36 1005.1
20260505051043 17 60 3.2 6.4 0.00 0.00 0.00 36 1005.0
20260505050930 17 60 3.2 6.4 0.00 0.00 0.00 36 1005.0
20260505050826 17 60 3.2 6.4 0.00 0.00 0.00 36 1005.0
20260505050734 17 60 3.2 8.0 0.00 0.00 0.00 36 1005.0
20260505050611 17 59 3.2 8.0 0.00 0.00 0.00 36 1005.0
20260505050534 17 59 3.2 8.0 0.00 0.00 0.00 36 1005.0
20260505050439 17 59 3.2 8.0 0.00 0.00 0.00 36 1005.0
20260505050317 17 59 4.8 8.0 0.00 0.00 0.00 36 1005.0
20260505050216 17 59 4.8 8.0 0.00 0.00 0.00 36 1005.0
20260505050120 17 60 4.8 8.0 0.00 0.00 0.00 36 1005.0
20260505041751 19 44 6.4 14.5 0.00 0.00 0.00 33 1004.5
20260505041614 19 27 8.0 17.7 0.00 0.00 0.00 33 1004.5
20260505041512 19 28 8.0 17.7 0.00 0.00 0.00 33 1004.5
20260505041423 19 15 6.4 17.7 0.00 0.00 0.00 33 1004.5
20260505041339 19 47 6.4 17.7 0.00 0.00 0.00 33 1004.5
20260505041223 19 35 4.8 17.7 0.00 0.00 0.00 32 1004.4
20260505041116 19 27 6.4 17.7 0.00 0.00 0.00 32 1004.5
20260505041024 19 30 8.0 17.7 0.00 0.00 0.00 32 1004.4
20260505040921 19 27 11.3 17.7 0.00 0.00 0.00 32 1004.4
20260505040826 19 29 9.7 17.7 0.00 0.00 0.00 32 1004.4
20260505040722 19 32 8.0 16.1 0.00 0.00 0.00 32 1004.4
20260505040632 19 19 8.0 16.1 0.00 0.00 0.00 32 1004.4
20260505040544 19 29 8.0 16.1 0.00 0.00 0.00 32 1004.3
20260505040449 19 15 8.0 16.1 0.00 0.00 0.00 32 1004.3
20260505040325 19 34 8.0 16.1 0.00 0.00 0.00 32 1004.3
20260505040230 19 36 8.0 16.1 0.00 0.00 0.00 32 1004.3
20260505040129 19 27 8.0 16.1 0.00 0.00 0.00 32 1004.3
20260505040033 19 10 8.0 14.5 0.00 0.00 0.00 31 1004.3
20260505035914 19 15 8.0 14.5 0.00 0.00 0.00 31 1004.2
20260505035840 19 19 8.0 14.5 0.00 0.00 0.00 31 1004.2
20260505035715 20 22 8.0 12.9 0.00 0.00 0.00 31 1004.2
20260505035618 20 15 6.4 12.9 0.00 0.00 0.00 31 1004.1
20260505035515 20 15 6.4 14.5 0.00 0.00 0.00 31 1004.1
20260505035422 20 21 6.4 14.5 0.00 0.00 0.00 31 1004.1
20260505035338 20 19 6.4 14.5 0.00 0.00 0.00 31 1004.1
20260505035224 20 26 6.4 14.5 0.00 0.00 0.00 30 1004.1
20260505035124 20 22 6.4 14.5 0.00 0.00 0.00 30 1004.1
20260505035031 20 10 6.4 14.5 0.00 0.00 0.00 30 1004.1
20260505034928 20 356 6.4 14.5 0.00 0.00 0.00 30 1004.0
20260505034825 20 15 6.4 14.5 0.00 0.00 0.00 30 1004.0
20260505034734 20 19 8.0 14.5 0.00 0.00 0.00 30 1004.0
20260505034638 20 15 6.4 12.9 0.00 0.00 0.00 30 1003.9
20260505034513 20 15 4.8 12.9 0.00 0.00 0.00 30 1003.9
20260505034423 20 10 6.4 12.9 0.00 0.00 0.00 30 1003.9
20260505034317 20 19 6.4 12.9 0.00 0.00 0.00 30 1003.9
20260505034215 20 40 6.4 12.9 0.00 0.00 0.00 30 1003.9
20260505034118 20 15 6.4 12.9 0.00 0.00 0.00 29 1003.8
20260505034014 20 15 8.0 12.9 0.00 0.00 0.00 29 1003.8
20260505033920 20 15 6.4 12.9 0.00 0.00 0.00 29 1003.8
20260505033822 20 15 4.8 12.9 0.00 0.00 0.00 29 1003.8
20260505033719 20 10 6.4 12.9 0.00 0.00 0.00 29 1003.8
20260505033623 20 10 6.4 12.9 0.00 0.00 0.00 29 1003.8
20260505033527 20 5 6.4 12.9 0.00 0.00 0.00 29 1003.8
20260505033423 20 10 6.4 12.9 0.00 0.00 0.00 29 1003.8
20260505033319 20 10 6.4 12.9 0.00 0.00 0.00 29 1003.8
20260505033245 20 21 6.4 16.1 0.00 0.00 0.00 29 1003.8
20260505033131 20 15 4.8 16.1 0.00 0.00 0.00 29 1003.8
20260505033049 21 15 4.8 16.1 0.00 0.00 0.00 29 1003.7
20260505032935 21 10 6.4 16.1 0.00 0.00 0.00 28 1003.7
20260505032832 21 349 8.0 19.3 0.00 0.00 0.00 28 1003.7
20260505032719 21 5 6.4 20.9 0.00 0.00 0.00 28 1003.7
20260505032615 21 10 8.0 20.9 0.00 0.00 0.00 28 1003.7
20260505032513 21 21 8.0 20.9 0.00 0.00 0.00 28 1003.7
20260505032421 21 353 6.4 20.9 0.00 0.00 0.00 28 1003.7
20260505032323 21 347 6.4 20.9 0.00 0.00 0.00 28 1003.7
20260505032230 21 353 8.0 20.9 0.00 0.00 0.00 28 1003.7
20260505032127 21 316 9.7 20.9 0.00 0.00 0.00 28 1003.6
20260505032033 21 24 11.3 20.9 0.00 0.00 0.00 28 1003.6
20260505031931 21 324 11.3 20.9 0.00 0.00 0.00 28 1003.6
20260505031826 21 15 9.7 17.7 0.00 0.00 0.00 28 1003.6
20260505031738 21 10 11.3 17.7 0.00 0.00 0.00 28 1003.6
20260505031614 21 348 8.0 17.7 0.00 0.00 0.00 28 1003.6
20260505031511 21 314 8.0 17.7 0.00 0.00 0.00 28 1003.6
20260505031417 21 337 8.0 17.7 0.00 0.00 0.00 28 1003.6
20260505031314 21 352 9.7 17.7 0.00 0.00 0.00 28 1003.5
20260505031222 21 358 11.3 17.7 0.00 0.00 0.00 28 1003.6
20260505031122 21 338 11.3 17.7 0.00 0.00 0.00 28 1003.6
20260505031018 21 359 9.7 19.3 0.00 0.00 0.00 28 1003.5
20260505030924 21 344 9.7 20.9 0.00 0.00 0.00 27 1003.5
20260505030827 21 26 8.0 24.1 0.00 0.00 0.00 27 1003.5
20260505030723 21 343 8.0 24.1 0.00 0.00 0.00 27 1003.4
20260505030650 21 353 9.7 24.1 0.00 0.00 0.00 27 1003.4
20260505030533 21 338 9.7 24.1 0.00 0.00 0.00 27 1003.5
20260505030411 22 22 9.7 24.1 0.00 0.00 0.00 27 1003.4
20260505030310 22 352 11.3 24.1 0.00 0.00 0.00 27 1003.4
20260505030238 22 358 12.9 24.1 0.00 0.00 0.00 26 1003.4
20260505030114 22 40 12.9 24.1 0.00 0.00 0.00 26 1003.4
20260505030011 22 25 11.3 24.1 0.00 0.00 0.00 26 1003.3
20260505025916 22 353 11.3 20.9 0.00 0.00 0.00 26 1003.3
20260505025813 22 10 11.3 20.9 0.00 0.00 0.00 26 1003.3
20260505025726 22 360 9.7 19.3 0.00 0.00 0.00 26 1003.3
20260505025620 22 350 9.7 27.4 0.00 0.00 0.00 25 1003.3
20260505025517 22 354 9.7 27.4 0.00 0.00 0.00 25 1003.3
20260505025444 22 347 11.3 27.4 0.00 0.00 0.00 25 1003.3
20260505025320 22 352 11.3 27.4 0.00 0.00 0.00 25 1003.3
20260505025223 22 302 9.7 27.4 0.00 0.00 0.00 25 1003.3
20260505025151 22 341 11.3 27.4 0.00 0.00 0.00 25 1003.3
20260505025025 22 327 9.7 27.4 0.00 0.00 0.00 25 1003.3
20260505024954 22 350 9.7 27.4 0.00 0.00 0.00 25 1003.3
20260505024859 22 343 11.3 27.4 0.00 0.00 0.00 24 1003.3
20260505024715 22 343 9.7 27.4 0.00 0.00 0.00 25 1003.3
20260505024611 22 5 9.7 24.1 0.00 0.00 0.00 24 1003.2
20260505024536 22 359 8.0 24.1 0.00 0.00 0.00 24 1003.2
20260505024442 22 357 9.7 24.1 0.00 0.00 0.00 24 1003.2
20260505024318 22 15 12.9 24.1 0.00 0.00 0.00 24 1003.2
20260505024246 23 348 12.9 24.1 0.00 0.00 0.00 24 1003.2
20260505024123 23 314 11.3 27.4 0.00 0.00 0.00 24 1003.2
20260505024030 23 22 12.9 30.6 0.00 0.00 0.00 24 1003.2
20260505023927 23 331 14.5 30.6 0.00 0.00 0.00 24 1003.2
20260505023833 23 346 12.9 30.6 0.00 0.00 0.00 24 1003.2
20260505023727 23 5 12.9 30.6 0.00 0.00 0.00 23 1003.2
20260505023634 23 32 14.5 30.6 0.00 0.00 0.00 23 1003.2
20260505023510 23 336 14.5 30.6 0.00 0.00 0.00 23 1003.1
20260505023412 23 19 16.1 30.6 0.00 0.00 0.00 23 1003.2
20260505023339 23 343 19.3 30.6 0.00 0.00 0.00 23 1003.2
20260505023243 23 23 16.1 30.6 0.00 0.00 0.00 23 1003.2
20260505023150 23 346 16.1 27.4 0.00 0.00 0.00 23 1003.2
20260505023024 23 323 17.7 27.4 0.00 0.00 0.00 23 1003.2
20260505022922 23 358 16.1 27.4 0.00 0.00 0.00 22 1003.2
20260505022826 23 339 12.9 27.4 0.00 0.00 0.00 22 1003.2
20260505022750 23 348 14.5 27.4 0.00 0.00 0.00 22 1003.2
20260505022630 23 321 14.5 27.4 0.00 0.00 0.00 22 1003.2
20260505022534 23 10 14.5 25.7 0.00 0.00 0.00 22 1003.1
20260505022428 23 353 14.5 25.7 0.00 0.00 0.00 22 1003.2
20260505022331 23 339 14.5 25.7 0.00 0.00 0.00 22 1003.2
20260505022224 24 332 14.5 24.1 0.00 0.00 0.00 21 1003.1
20260505022132 24 26 16.1 24.1 0.00 0.00 0.00 21 1003.1
20260505022047 24 15 14.5 32.2 0.00 0.00 0.00 21 1003.2
20260505021931 24 359 11.3 32.2 0.00 0.00 0.00 22 1003.2
20260505021813 24 356 8.0 32.2 0.00 0.00 0.00 22 1003.1
20260505021741 24 343 9.7 32.2 0.00 0.00 0.00 22 1003.1
20260505021616 24 344 14.5 32.2 0.00 0.00 0.00 21 1003.2
20260505021523 24 329 16.1 32.2 0.00 0.00 0.00 21 1003.1
20260505021429 24 328 16.1 32.2 0.00 0.00 0.00 21 1003.1
20260505021333 24 351 17.7 32.2 0.00 0.00 0.00 21 1003.1
20260505021211 24 320 17.7 32.2 0.00 0.00 0.00 21 1003.1
20260505021130 24 324 17.7 29.0 0.00 0.00 0.00 21 1003.1
20260505021016 24 5 16.1 29.0 0.00 0.00 0.00 21 1003.1
20260505020933 24 333 14.5 27.4 0.00 0.00 0.00 21 1003.2
20260505020818 24 25 14.5 27.4 0.00 0.00 0.00 21 1003.2
20260505020717 24 339 14.5 27.4 0.00 0.00 0.00 20 1003.1
20260505020620 24 309 16.1 27.4 0.00 0.00 0.00 21 1003.2
20260505020517 24 358 16.1 35.4 0.00 0.00 0.00 20 1003.2
20260505020427 25 15 16.1 35.4 0.00 0.00 0.00 20 1003.2
20260505020353 25 326 17.7 35.4 0.00 0.00 0.00 20 1003.2
20260505020301 25 331 16.1 35.4 0.00 0.00 0.00 20 1003.2
20260505020116 25 318 16.1 35.4 0.00 0.00 0.00 19 1003.1
20260505020014 25 342 14.5 35.4 0.00 0.00 0.00 19 1003.1
20260505015911 25 337 14.5 35.4 0.00 0.00 0.00 19 1003.0
20260505015817 25 318 17.7 35.4 0.00 0.00 0.00 19 1003.0
20260505015719 25 312 19.3 35.4 0.00 0.00 0.00 19 1003.0
20260505015621 25 358 20.9 35.4 0.00 0.00 0.00 19 1003.0
20260505015518 25 331 17.7 32.2 0.00 0.00 0.00 19 1003.1
20260505015424 25 323 14.5 29.0 0.00 0.00 0.00 19 1003.1
20260505015322 25 356 17.7 29.0 0.00 0.00 0.00 19 1003.1
20260505015219 25 328 19.3 29.0 0.00 0.00 0.00 19 1003.1
20260505015122 25 325 19.3 29.0 0.00 0.00 0.00 19 1003.1
20260505015032 25 348 17.7 29.0 0.00 0.00 0.00 19 1003.1
20260505014929 25 335 17.7 29.0 0.00 0.00 0.00 19 1003.1
20260505014826 25 352 16.1 25.7 0.00 0.00 0.00 19 1003.1
20260505014714 25 358 14.5 25.7 0.00 0.00 0.00 19 1003.1
20260505014630 25 337 16.1 25.7 0.00 0.00 0.00 19 1003.1
20260505014534 25 329 19.3 27.4 0.00 0.00 0.00 19 1003.1
20260505014414 25 10 19.3 32.2 0.00 0.00 0.00 19 1003.1
20260505014312 25 346 17.7 32.2 0.00 0.00 0.00 19 1003.1
20260505014218 25 323 16.1 32.2 0.00 0.00 0.00 19 1003.1
20260505014114 25 357 12.9 32.2 0.00 0.00 0.00 20 1003.1
20260505014020 25 302 14.5 32.2 0.00 0.00 0.00 20 1003.1
20260505013916 25 15 16.1 32.2 0.00 0.00 0.00 20 1003.1
20260505013823 25 349 17.7 32.2 0.00 0.00 0.00 20 1003.1
20260505013725 25 357 19.3 32.2 0.00 0.00 0.00 20 1003.2
20260505013633 25 327 20.9 32.2 0.00 0.00 0.00 20 1003.2
20260505013547 25 30 17.7 30.6 0.00 0.00 0.00 20 1003.1
20260505013432 25 327 17.7 29.0 0.00 0.00 0.00 20 1003.1
20260505013329 25 40 20.9 29.0 0.00 0.00 0.00 20 1003.1
20260505013239 26 325 17.7 27.4 0.00 0.00 0.00 20 1003.1
20260505013132 26 346 16.1 27.4 0.00 0.00 0.00 20 1003.1
20260505013012 26 347 14.5 27.4 0.00 0.00 0.00 20 1003.1
20260505012919 26 27 12.9 27.4 0.00 0.00 0.00 20 1003.1
20260505012846 26 343 14.5 27.4 0.00 0.00 0.00 21 1003.0
20260505012724 26 357 14.5 30.6 0.00 0.00 0.00 21 1003.1
20260505012620 26 36 16.1 30.6 0.00 0.00 0.00 21 1003.1
20260505012527 26 356 17.7 30.6 0.00 0.00 0.00 21 1003.1
20260505012425 26 334 16.1 30.6 0.00 0.00 0.00 21 1003.1
20260505012336 26 326 16.1 30.6 0.00 0.00 0.00 21 1003.1
20260505012212 26 347 17.7 30.6 0.00 0.00 0.00 20 1003.2
20260505012141 26 23 17.7 30.6 0.00 0.00 0.00 20 1003.2
20260505012016 26 323 19.3 30.6 0.00 0.00 0.00 20 1003.1
20260505011912 26 339 17.7 30.6 0.00 0.00 0.00 20 1003.1
20260505011819 26 332 14.5 29.0 0.00 0.00 0.00 20 1003.2
20260505011715 26 337 14.5 29.0 0.00 0.00 0.00 20 1003.1
20260505011623 26 333 16.1 30.6 0.00 0.00 0.00 21 1003.1
20260505011549 26 360 19.3 30.6 0.00 0.00 0.00 20 1003.1
20260505011425 26 346 19.3 30.6 0.00 0.00 0.00 20 1003.1
20260505011321 26 350 19.3 30.6 0.00 0.00 0.00 21 1003.1
20260505011230 26 341 19.3 30.6 0.00 0.00 0.00 21 1003.1
20260505011126 26 346 16.1 30.6 0.00 0.00 0.00 21 1003.1
20260505011031 26 346 12.9 32.2 0.00 0.00 0.00 21 1003.1
20260505010912 26 5 17.7 32.2 0.00 0.00 0.00 20 1003.1
20260505010838 26 354 19.3 32.2 0.00 0.00 0.00 20 1003.1
20260505010717 26 340 19.3 32.2 0.00 0.00 0.00 20 1003.1
20260505010632 26 303 17.7 32.2 0.00 0.00 0.00 20 1003.1
20260505010538 26 358 17.7 32.2 0.00 0.00 0.00 21 1003.1
20260505010424 26 353 14.5 32.2 0.00 0.00 0.00 21 1003.2
20260505010321 26 15 16.1 32.2 0.00 0.00 0.00 21 1003.1
20260505010222 26 19 19.3 32.2 0.00 0.00 0.00 21 1003.1
20260505010149 26 346 17.7 32.2 0.00 0.00 0.00 21 1003.1
20260505010034 27 333 19.3 32.2 0.00 0.00 0.00 21 1003.1
20260505005951 27 5 17.7 32.2 0.00 0.00 0.00 21 1003.1
20260505005834 27 335 17.7 30.6 0.00 0.00 0.00 21 1003.2
20260505005711 27 321 17.7 30.6 0.00 0.00 0.00 21 1003.2
20260505005637 27 318 17.7 30.6 0.00 0.00 0.00 21 1003.2
20260505005517 27 340 17.7 30.6 0.00 0.00 0.00 21 1003.1
20260505005422 27 344 17.7 30.6 0.00 0.00 0.00 21 1003.1
20260505005339 27 5 16.1 30.6 0.00 0.00 0.00 22 1003.1
20260505005226 27 5 16.1 30.6 0.00 0.00 0.00 21 1003.1
20260505005154 27 15 16.1 30.6 0.00 0.00 0.00 21 1003.1
20260505005048 27 335 17.7 33.8 0.00 0.00 0.00 21 1003.1
20260505004933 27 338 17.7 33.8 0.00 0.00 0.00 21 1003.1
20260505004830 27 316 14.5 33.8 0.00 0.00 0.00 21 1003.1
20260505004717 27 302 12.9 33.8 0.00 0.00 0.00 21 1003.1
20260505004617 27 321 11.3 33.8 0.00 0.00 0.00 21 1003.1
20260505004543 27 338 11.3 33.8 0.00 0.00 0.00 21 1003.1
20260505004418 27 312 16.1 33.8 0.00 0.00 0.00 21 1003.2
20260505004324 27 308 17.7 33.8 0.00 0.00 0.00 21 1003.2
20260505004244 27 325 16.1 33.8 0.00 0.00 0.00 21 1003.2
20260505004126 27 310 16.1 30.6 0.00 0.00 0.00 23 1003.2
20260505004022 27 29 16.1 29.0 0.00 0.00 0.00 22 1003.2
20260505003932 27 15 16.1 29.0 0.00 0.00 0.00 22 1003.2
20260505003849 27 21 16.1 29.0 0.00 0.00 0.00 22 1003.1
20260505003732 27 325 17.7 29.0 0.00 0.00 0.00 22 1003.2
20260505003631 27 21 17.7 29.0 0.00 0.00 0.00 22 1003.2
20260505003536 27 354 20.9 29.0 0.00 0.00 0.00 21 1003.2
20260505003412 27 10 17.7 29.0 0.00 0.00 0.00 22 1003.2
20260505003338 27 331 17.7 29.0 0.00 0.00 0.00 22 1003.2
20260505003222 27 308 12.9 24.1 0.00 0.00 0.00 22 1003.1
20260505003117 27 347 12.9 27.4 0.00 0.00 0.00 22 1003.1
20260505003024 27 346 16.1 27.4 0.00 0.00 0.00 22 1003.1
20260505002921 27 314 16.1 27.4 0.00 0.00 0.00 22 1003.1
20260505002827 27 332 14.5 27.4 0.00 0.00 0.00 22 1003.1
20260505002723 27 326 12.9 27.4 0.00 0.00 0.00 21 1003.1
20260505002650 27 317 14.5 27.4 0.00 0.00 0.00 21 1003.1
20260505002528 27 300 14.5 27.4 0.00 0.00 0.00 21 1003.1
20260505002412 27 339 19.3 27.4 0.00 0.00 0.00 21 1003.1
20260505002327 27 322 16.1 27.4 0.00 0.00 0.00 22 1003.1
20260505002236 27 329 14.5 25.7 0.00 0.00 0.00 22 1003.2
20260505002110 27 315 16.1 25.7 0.00 0.00 0.00 21 1003.1
20260505002037 27 309 17.7 25.7 0.00 0.00 0.00 21 1003.1
20260505001935 27 287 11.3 24.1 0.00 0.00 0.00 22 1003.1
20260505001816 27 300 11.3 25.7 0.00 0.00 0.00 21 1003.0
20260505001721 27 328 14.5 25.7 0.00 0.00 0.00 21 1003.1
20260505001626 27 304 14.5 27.4 0.00 0.00 0.00 22 1003.1
20260505001524 27 321 16.1 27.4 0.00 0.00 0.00 22 1003.1
20260505001429 27 303 16.1 27.4 0.00 0.00 0.00 22 1003.1
20260505001326 27 310 16.1 27.4 0.00 0.00 0.00 22 1003.2
20260505001232 27 289 16.1 30.6 0.00 0.00 0.00 22 1003.2
20260505001117 27 352 17.7 30.6 0.00 0.00 0.00 22 1003.1
20260505001029 27 316 19.3 30.6 0.00 0.00 0.00 22 1003.1
20260505000925 27 317 20.9 30.6 0.00 0.00 0.00 21 1003.1
20260505000824 27 312 19.3 30.6 0.00 0.00 0.00 21 1003.1
20260505000731 27 332 19.3 30.6 0.00 0.00 0.00 21 1003.1
20260505000625 27 318 19.3 30.6 0.00 0.00 0.00 21 1003.2
20260505000529 27 323 17.7 30.6 0.00 0.00 0.00 21 1003.2
20260505000413 27 353 14.5 30.6 0.00 0.00 0.00 22 1003.1
20260505000329 27 346 14.5 29.0 0.00 0.00 0.00 22 1003.1
20260505000237 27 34 12.9 29.0 0.00 0.00 0.00 21 1003.1
20260505000134 27 317 14.5 29.0 0.00 0.00 0.00 21 1003.2
20260505000019 27 308 17.7 29.0 0.00 0.00 0.00 22 1003.1
20260504235915 27 338 14.5 29.0 0.00 0.00 0.00 22 1003.1
20260504235811 27 330 11.3 29.0 0.00 0.00 0.00 22 1003.1
20260504235742 27 327 11.3 29.0 0.00 0.00 0.00 21 1003.0
20260504235629 27 323 16.1 29.0 0.00 0.00 0.00 21 1003.0
20260504235524 27 278 17.7 29.0 0.00 0.00 0.00 21 1003.1
20260504235421 27 300 19.3 29.0 0.00 0.00 0.00 21 1003.1
20260504235328 27 302 19.3 29.0 0.00 0.00 0.00 22 1003.1
20260504235232 27 320 19.3 29.0 0.00 0.00 0.00 22 1003.1
20260504235151 27 324 19.3 29.0 0.00 0.00 0.00 22 1003.1
20260504235014 27 294 14.5 29.0 0.00 0.00 0.00 22 1003.1
20260504234920 27 352 12.9 25.7 0.00 0.00 0.00 22 1003.1
20260504234837 27 325 16.1 25.7 0.00 0.00 0.00 22 1003.1
20260504234723 27 29 17.7 27.4 0.00 0.00 0.00 22 1003.1
20260504234650 27 15 16.1 27.4 0.00 0.00 0.00 22 1003.1
20260504234524 27 337 16.1 27.4 0.00 0.00 0.00 21 1003.0
20260504234422 27 340 14.5 30.6 0.00 0.00 0.00 21 1003.0
20260504234328 27 319 14.5 32.2 0.00 0.00 0.00 21 1003.0
20260504234225 27 337 16.1 32.2 0.00 0.00 0.00 22 1003.0
20260504234137 27 5 16.1 32.2 0.00 0.00 0.00 21 1003.0
20260504234012 28 321 16.1 32.2 0.00 0.00 0.00 21 1003.1
20260504233910 27 306 16.1 32.2 0.00 0.00 0.00 22 1003.0
20260504233815 27 353 16.1 32.2 0.00 0.00 0.00 22 1003.1
20260504233715 27 328 19.3 32.2 0.00 0.00 0.00 21 1003.1
20260504233611 27 338 19.3 32.2 0.00 0.00 0.00 21 1003.1
20260504233522 28 333 14.5 32.2 0.00 0.00 0.00 21 1003.1
20260504233420 28 307 9.7 29.0 0.00 0.00 0.00 21 1003.1
20260504233324 28 5 14.5 29.0 0.00 0.00 0.00 21 1003.1
20260504233250 28 309 17.7 29.0 0.00 0.00 0.00 21 1003.1
20260504233156 28 330 17.7 29.0 0.00 0.00 0.00 21 1003.1
20260504233031 28 309 17.7 29.0 0.00 0.00 0.00 21 1003.2
20260504232932 28 318 14.5 29.0 0.00 0.00 0.00 21 1003.1
20260504232829 28 327 16.1 29.0 0.00 0.00 0.00 21 1003.1
20260504232712 28 19 20.9 33.8 0.00 0.00 0.00 21 1003.1
20260504232615 28 303 19.3 33.8 0.00 0.00 0.00 21 1003.1
20260504232542 28 323 16.1 33.8 0.00 0.00 0.00 20 1003.1
20260504232419 28 307 12.9 33.8 0.00 0.00 0.00 21 1003.1
20260504232324 28 290 11.3 33.8 0.00 0.00 0.00 21 1003.1
20260504232220 28 323 14.5 33.8 0.00 0.00 0.00 20 1003.1
20260504232123 28 311 16.1 33.8 0.00 0.00 0.00 21 1003.2
20260504232020 28 325 19.3 33.8 0.00 0.00 0.00 21 1003.2
20260504231931 28 25 20.9 33.8 0.00 0.00 0.00 20 1003.2
20260504231826 28 313 19.3 29.0 0.00 0.00 0.00 20 1003.1
20260504231725 28 312 16.1 29.0 0.00 0.00 0.00 20 1003.1
20260504231632 28 315 14.5 29.0 0.00 0.00 0.00 20 1003.1
20260504231537 28 305 16.1 29.0 0.00 0.00 0.00 20 1003.1
20260504231414 28 300 16.1 29.0 0.00 0.00 0.00 20 1003.1
20260504231320 28 314 16.1 29.0 0.00 0.00 0.00 21 1003.2
20260504231224 28 333 16.1 29.0 0.00 0.00 0.00 20 1003.2
20260504231119 28 304 14.5 29.0 0.00 0.00 0.00 21 1003.2
20260504231024 28 346 14.5 29.0 0.00 0.00 0.00 21 1003.2
20260504230922 28 54 17.7 33.8 0.00 0.00 0.00 20 1003.2
20260504230828 28 302 19.3 33.8 0.00 0.00 0.00 20 1003.2
20260504230744 28 268 14.5 33.8 0.00 0.00 0.00 20 1003.2
20260504230629 28 289 11.3 33.8 0.00 0.00 0.00 20 1003.2
20260504230558 28 275 9.7 33.8 0.00 0.00 0.00 20 1003.2
20260504230415 28 331 12.9 33.8 0.00 0.00 0.00 20 1003.3
20260504230312 28 352 16.1 33.8 0.00 0.00 0.00 20 1003.4
20260504230222 28 321 19.3 33.8 0.00 0.00 0.00 20 1003.3
20260504230116 28 331 19.3 33.8 0.00 0.00 0.00 20 1003.3
20260504230012 28 333 14.5 33.8 0.00 0.00 0.00 20 1003.3
20260504225921 28 313 12.9 33.8 0.00 0.00 0.00 20 1003.3
20260504225818 28 311 14.5 33.8 0.00 0.00 0.00 20 1003.2
20260504225724 28 287 14.5 33.8 0.00 0.00 0.00 20 1003.3
20260504225620 28 313 14.5 33.8 0.00 0.00 0.00 20 1003.4
20260504225517 28 285 19.3 33.8 0.00 0.00 0.00 20 1003.3
20260504225422 28 317 22.5 33.8 0.00 0.00 0.00 20 1003.4
20260504225320 28 316 19.3 33.8 0.00 0.00 0.00 20 1003.4
20260504225232 28 314 14.5 29.0 0.00 0.00 0.00 20 1003.4
20260504225146 28 276 11.3 29.0 0.00 0.00 0.00 21 1003.4
20260504225030 28 325 16.1 29.0 0.00 0.00 0.00 21 1003.4
20260504224957 28 303 17.7 29.0 0.00 0.00 0.00 21 1003.4
20260504224813 28 354 14.5 29.0 0.00 0.00 0.00 21 1003.3
20260504224729 28 341 16.1 29.0 0.00 0.00 0.00 20 1003.3
20260504224635 28 315 12.9 29.0 0.00 0.00 0.00 20 1003.3